BOX393 KMCO-EDDP

Flight info

Callsign BOX393
Flight time 9h 42m
Altitude 32000
Route JEEMY4 PAINN SHRKS BERTT GURGE RAYVO Q87 NOWAE FAK BOOYA Q34 RBV Q22 LLUND BIZEX Q133 CAM BEEHS JIGZY HULTN N611A SAXAN 5250N 5340N 5330N 5320N MALOT GISTI ENJEX ADHAV AXNEF ZIPWE OZZIL SAWPE L179 ICTAM M197 REDFA TACHA NORTA ADMOS T959 KOJEC
Aircraft B77L/H-SDE1E2E3FGHIJ2J3J4J5M1RWXY/LB1D1

Departure

Time 2026-04-25 13:27
Airport Orlando International Airport (KMCO)

Arrival

Time 2026-04-25 23:09
Airport Leipzig/Halle Airport (EDDP)
Time Latitude Longitude Altitude Speed Heading
2026-04-25 12:04 28.43522 -81.33008 106 ft 0 kts 268°
2026-04-25 12:58 28.43522 -81.33009 107 ft 2 kts 268°
2026-04-25 13:01 28.43521 -81.33013 107 ft 1 kts 268°
2026-04-25 13:01 28.43521 -81.33026 107 ft 2 kts 268°
2026-04-25 13:02 28.43521 -81.33027 107 ft 0 kts 268°
2026-04-25 13:05 28.43515 -81.33054 107 ft 8 kts 252°
2026-04-25 13:05 28.43543 -81.33077 106 ft 7 kts 44°
2026-04-25 13:05 28.43534 -81.33037 107 ft 0 kts 110°
2026-04-25 13:06 28.43535 -81.33033 107 ft 0 kts 93°
2026-04-25 13:09 28.43535 -81.33032 107 ft 1 kts 93°
2026-04-25 13:09 28.43536 -81.32996 107 ft 8 kts 88°
2026-04-25 13:09 28.43581 -81.32932 106 ft 16 kts 14°
2026-04-25 13:09 28.43679 -81.32931 105 ft 15 kts 359°
2026-04-25 13:10 28.43771 -81.32932 102 ft 11 kts 359°
2026-04-25 13:10 28.43851 -81.32933 102 ft 11 kts 359°
2026-04-25 13:10 28.43930 -81.32932 104 ft 11 kts
2026-04-25 13:10 28.44004 -81.32900 104 ft 11 kts 25°
2026-04-25 13:11 28.44075 -81.32869 102 ft 11 kts 13°
2026-04-25 13:11 28.44137 -81.32862 101 ft 7 kts
2026-04-25 13:11 28.44185 -81.32859 103 ft 7 kts
2026-04-25 13:11 28.44233 -81.32861 104 ft 7 kts 356°
2026-04-25 13:12 28.44282 -81.32863 104 ft 7 kts 360°
2026-04-25 13:12 28.44362 -81.32865 106 ft 18 kts 359°
2026-04-25 13:12 28.44509 -81.32867 109 ft 22 kts
2026-04-25 13:12 28.44609 -81.32867 108 ft 22 kts 359°
2026-04-25 13:13 28.44783 -81.32859 110 ft 13 kts 27°
2026-04-25 13:13 28.44815 -81.32773 110 ft 13 kts 85°
2026-04-25 13:13 28.44818 -81.32670 108 ft 13 kts 87°
2026-04-25 13:13 28.44821 -81.32564 106 ft 13 kts 89°
2026-04-25 13:14 28.44821 -81.32464 108 ft 11 kts 89°
2026-04-25 13:14 28.44822 -81.32373 107 ft 11 kts 89°
2026-04-25 13:14 28.44823 -81.32346 106 ft 0 kts 89°
2026-04-25 13:23 28.44823 -81.32345 106 ft 1 kts 89°
2026-04-25 13:23 28.44823 -81.32284 105 ft 12 kts 93°
2026-04-25 13:24 28.44763 -81.32230 104 ft 6 kts 176°
2026-04-25 13:24 28.44762 -81.32230 101 ft 0 kts 178°
2026-04-25 13:26 28.44599 -81.32228 106 ft 55 kts 179°
2026-04-25 13:26 28.44001 -81.32222 108 ft 115 kts 179°
2026-04-25 13:26 28.43018 -81.32210 102 ft 165 kts 179°
2026-04-25 13:26 28.41748 -81.32207 148 ft 196 kts 181°
2026-04-25 13:27 28.40384 -81.32196 636 ft 193 kts 181°
2026-04-25 13:27 28.39064 -81.32336 1217 ft 187 kts 195°
2026-04-25 13:27 28.37877 -81.33015 1385 ft 197 kts 213°
2026-04-25 13:27 28.36711 -81.33847 1732 ft 198 kts 212°
2026-04-25 13:28 28.35480 -81.34689 1958 ft 218 kts 211°
2026-04-25 13:28 28.35051 -81.34986 1973 ft 227 kts 212°
2026-04-25 13:28 28.33033 -81.37151 1856 ft 244 kts 228°
2026-04-25 13:28 28.31912 -81.38634 1910 ft 251 kts 229°
2026-04-25 13:29 28.30907 -81.40181 1878 ft 246 kts 245°
2026-04-25 13:29 28.30513 -81.42099 2191 ft 252 kts 262°
2026-04-25 13:29 28.30325 -81.44079 2758 ft 259 kts 263°
2026-04-25 13:30 28.30583 -81.48198 3871 ft 270 kts 300°
2026-04-25 13:30 28.31790 -81.49798 4556 ft 267 kts 320°
2026-04-25 13:30 28.33261 -81.51113 5175 ft 271 kts 322°
2026-04-25 13:31 28.36271 -81.53707 6453 ft 276 kts 323°
2026-04-25 13:31 28.37832 -81.54957 7063 ft 274 kts 333°
2026-04-25 13:31 28.39662 -81.55558 7586 ft 276 kts 352°
2026-04-25 13:31 28.41585 -81.55824 8157 ft 279 kts 352°
2026-04-25 13:32 28.43520 -81.56055 8769 ft 281 kts 353°
2026-04-25 13:32 28.45471 -81.56277 9380 ft 283 kts 353°
2026-04-25 13:32 28.47440 -81.56490 10007 ft 284 kts 353°
2026-04-25 13:32 28.49429 -81.56694 10425 ft 293 kts 355°
2026-04-25 13:33 28.51517 -81.56441 10518 ft 314 kts 14°
2026-04-25 13:33 28.53663 -81.55641 10690 ft 335 kts 17°
2026-04-25 13:33 28.55935 -81.54757 10848 ft 355 kts 17°
2026-04-25 13:33 28.56732 -81.54454 10920 ft 361 kts 16°
2026-04-25 13:34 28.60808 -81.52961 11800 ft 376 kts 15°
2026-04-25 13:34 28.63319 -81.52080 12542 ft 379 kts 15°
2026-04-25 13:34 28.65848 -81.51212 13376 ft 381 kts 14°
2026-04-25 13:34 28.68402 -81.50345 13973 ft 385 kts 14°
2026-04-25 13:35 28.70978 -81.49477 13986 ft 386 kts 14°
2026-04-25 13:35 28.73551 -81.48612 13993 ft 386 kts 14°
2026-04-25 13:35 28.75254 -81.48039 13990 ft 386 kts 14°
2026-04-25 13:35 28.78704 -81.46877 13990 ft 386 kts 14°
2026-04-25 13:36 28.80411 -81.46302 13989 ft 386 kts 14°
2026-04-25 13:36 28.82985 -81.45434 13994 ft 386 kts 14°
2026-04-25 13:36 28.85612 -81.44548 14370 ft 391 kts 14°
2026-04-25 13:36 28.88229 -81.43665 15045 ft 394 kts 14°
2026-04-25 13:37 28.90831 -81.42787 15713 ft 397 kts 14°
2026-04-25 13:37 28.93518 -81.41990 16000 ft 401 kts
2026-04-25 13:37 28.96282 -81.41620 15996 ft 399 kts
2026-04-25 13:37 28.99042 -81.41636 15993 ft 395 kts 353°
2026-04-25 13:38 29.01767 -81.41961 16001 ft 394 kts 352°
2026-04-25 13:38 29.04493 -81.42298 16032 ft 396 kts 352°
2026-04-25 13:38 29.07255 -81.42617 16590 ft 400 kts 352°
2026-04-25 13:38 29.10030 -81.42927 17264 ft 403 kts 353°
2026-04-25 13:39 29.12838 -81.43214 17884 ft 407 kts 353°
2026-04-25 13:39 29.15685 -81.43483 18425 ft 412 kts 353°
2026-04-25 13:39 29.18560 -81.43748 18970 ft 416 kts 353°
2026-04-25 13:39 29.21450 -81.44015 19561 ft 418 kts 353°
2026-04-25 13:40 29.24352 -81.44285 20152 ft 420 kts 353°
2026-04-25 13:40 29.27277 -81.44560 20717 ft 422 kts 353°
2026-04-25 13:40 29.30209 -81.44839 21232 ft 426 kts 353°
2026-04-25 13:40 29.33163 -81.45120 21751 ft 429 kts 353°
2026-04-25 13:41 29.36165 -81.45406 22296 ft 432 kts 353°
2026-04-25 13:41 29.39165 -81.45692 22817 ft 435 kts 353°
2026-04-25 13:41 29.42194 -81.45981 23348 ft 438 kts 353°
2026-04-25 13:41 29.45237 -81.46272 23812 ft 441 kts 353°
2026-04-25 13:42 29.48307 -81.46565 24238 ft 443 kts 353°
2026-04-25 13:42 29.51388 -81.46859 24677 ft 446 kts 354°
2026-04-25 13:42 29.54490 -81.47155 25119 ft 449 kts 354°
2026-04-25 13:42 29.57609 -81.47454 25521 ft 452 kts 354°
2026-04-25 13:43 29.60760 -81.47748 25926 ft 455 kts 354°
2026-04-25 13:43 29.63924 -81.48034 26358 ft 458 kts 355°
2026-04-25 13:43 29.67105 -81.48318 26792 ft 460 kts 355°
2026-04-25 13:43 29.70300 -81.48604 27216 ft 462 kts 355°
2026-04-25 13:44 29.73514 -81.48894 27622 ft 464 kts 355°
2026-04-25 13:44 29.76746 -81.49186 28012 ft 467 kts 355°
2026-04-25 13:44 29.79993 -81.49481 28403 ft 470 kts 355°
2026-04-25 13:44 29.83258 -81.49778 28771 ft 472 kts 355°
2026-04-25 13:45 29.85433 -81.49976 29027 ft 474 kts 355°
2026-04-25 13:45 29.89811 -81.50671 29480 ft 477 kts 349°
2026-04-25 13:45 29.93034 -81.51618 29800 ft 479 kts 343°
2026-04-25 13:45 29.96218 -81.52770 30162 ft 480 kts 343°
2026-04-25 13:46 29.99394 -81.53938 30548 ft 479 kts 343°
2026-04-25 13:46 30.02558 -81.55099 30925 ft 478 kts 343°
2026-04-25 13:46 30.05736 -81.56256 30966 ft 481 kts 343°
2026-04-25 13:47 30.12120 -81.58553 30973 ft 478 kts 343°
2026-04-25 13:47 30.18454 -81.60819 30983 ft 475 kts 343°
2026-04-25 13:48 30.24766 -81.63080 30986 ft 475 kts 343°
2026-04-25 13:48 30.31073 -81.65343 30988 ft 475 kts 343°
2026-04-25 13:49 30.37391 -81.67614 30969 ft 476 kts 343°
2026-04-25 13:49 30.43757 -81.69906 31131 ft 482 kts 343°
2026-04-25 13:49 30.46917 -81.71045 31471 ft 481 kts 343°
2026-04-25 13:50 30.50144 -81.72208 31879 ft 479 kts 343°
2026-04-25 13:50 30.53275 -81.73338 32278 ft 477 kts 343°
2026-04-25 13:50 30.56478 -81.74495 32668 ft 475 kts 343°
2026-04-25 13:50 30.59674 -81.75462 32891 ft 476 kts 349°
2026-04-25 13:51 30.62962 -81.75969 32933 ft 478 kts 355°
2026-04-25 13:51 30.69547 -81.75835 32974 ft 476 kts
2026-04-25 13:52 30.76160 -81.74947 32958 ft 474 kts
2026-04-25 13:52 30.82662 -81.74074 32961 ft 473 kts
2026-04-25 13:53 30.89245 -81.73238 32955 ft 473 kts
2026-04-25 13:53 30.95787 -81.72423 32957 ft 473 kts
2026-04-25 13:54 31.02320 -81.71607 32965 ft 473 kts
2026-04-25 13:54 31.08869 -81.70785 32961 ft 474 kts
2026-04-25 13:55 31.15422 -81.69914 32958 ft 474 kts
2026-04-25 13:55 31.21830 -81.68050 32964 ft 476 kts 16°
2026-04-25 13:56 31.28142 -81.65695 32944 ft 476 kts 17°
2026-04-25 13:56 31.34453 -81.63346 32959 ft 476 kts 16°
2026-04-25 13:57 31.40770 -81.61024 32957 ft 475 kts 16°
2026-04-25 13:57 31.47080 -81.58717 32962 ft 474 kts 16°
2026-04-25 13:58 31.53376 -81.56412 32953 ft 474 kts 16°
2026-04-25 13:58 31.59666 -81.54107 32952 ft 474 kts 16°
2026-04-25 13:59 31.65957 -81.51797 32951 ft 474 kts 16°
2026-04-25 13:59 31.72251 -81.49481 32943 ft 474 kts 16°
2026-04-25 14:00 31.76420 -81.47946 32946 ft 474 kts 16°
2026-04-25 14:00 31.84851 -81.44836 32945 ft 475 kts 16°
2026-04-25 14:01 31.91118 -81.42520 32948 ft 476 kts 16°
2026-04-25 14:01 31.97437 -81.40183 32942 ft 476 kts 16°
2026-04-25 14:02 32.03755 -81.37842 32950 ft 477 kts 16°
2026-04-25 14:02 32.10088 -81.35492 32953 ft 477 kts 16°
2026-04-25 14:03 32.16427 -81.33136 32951 ft 478 kts 16°
2026-04-25 14:03 32.22774 -81.30774 32948 ft 478 kts 16°
2026-04-25 14:04 32.29120 -81.28409 32947 ft 478 kts 16°
2026-04-25 14:04 32.35452 -81.26044 32933 ft 477 kts 16°
2026-04-25 14:05 32.41783 -81.23678 32926 ft 476 kts 16°
2026-04-25 14:05 32.47918 -81.20744 32925 ft 477 kts 27°
2026-04-25 14:06 32.53466 -81.16448 32924 ft 478 kts 37°
2026-04-25 14:06 32.58605 -81.11428 32923 ft 479 kts 38°
2026-04-25 14:07 32.63725 -81.06367 32929 ft 480 kts 38°
2026-04-25 14:07 32.68877 -81.01315 32933 ft 481 kts 38°
2026-04-25 14:08 32.74059 -80.96262 32924 ft 482 kts 38°
2026-04-25 14:08 32.79257 -80.91190 32933 ft 483 kts 38°
2026-04-25 14:09 32.84452 -80.86110 32941 ft 484 kts 38°
2026-04-25 14:09 32.89644 -80.81026 32950 ft 483 kts 38°
2026-04-25 14:10 32.94793 -80.75975 32950 ft 483 kts 38°
2026-04-25 14:10 32.99968 -80.70890 32947 ft 482 kts 38°
2026-04-25 14:11 33.05134 -80.65806 32915 ft 482 kts 38°
2026-04-25 14:11 33.10298 -80.60718 32927 ft 481 kts 38°
2026-04-25 14:12 33.15459 -80.55623 32927 ft 481 kts 38°
2026-04-25 14:12 33.20616 -80.50524 32920 ft 481 kts 39°
2026-04-25 14:13 33.25764 -80.45428 32927 ft 481 kts 39°
2026-04-25 14:13 33.30912 -80.40320 32917 ft 481 kts 39°
2026-04-25 14:14 33.36050 -80.35216 32919 ft 480 kts 39°
2026-04-25 14:14 33.41188 -80.30104 32930 ft 480 kts 39°
2026-04-25 14:15 33.46324 -80.24985 32933 ft 480 kts 39°
2026-04-25 14:15 33.51460 -80.19857 32932 ft 480 kts 39°
2026-04-25 14:16 33.56593 -80.14724 32948 ft 481 kts 39°
2026-04-25 14:16 33.61727 -80.09584 32936 ft 481 kts 39°
2026-04-25 14:17 33.67212 -80.05006 32927 ft 480 kts 27°
2026-04-25 14:17 33.73174 -80.01399 32935 ft 480 kts 26°
2026-04-25 14:18 33.79020 -79.97918 32907 ft 481 kts 26°
2026-04-25 14:18 33.84999 -79.94303 32917 ft 481 kts 26°
2026-04-25 14:19 33.89967 -79.91271 32916 ft 482 kts 26°
2026-04-25 14:19 33.95947 -79.87614 32919 ft 482 kts 26°
2026-04-25 14:20 34.01851 -79.84001 32931 ft 482 kts 26°
2026-04-25 14:20 34.07828 -79.80334 32928 ft 482 kts 26°
2026-04-25 14:21 34.13804 -79.76666 32937 ft 482 kts 26°
2026-04-25 14:21 34.19736 -79.73016 32938 ft 482 kts 26°
2026-04-25 14:22 34.25708 -79.69328 32944 ft 482 kts 26°
2026-04-25 14:22 34.31689 -79.65627 32912 ft 483 kts 26°
2026-04-25 14:23 34.37670 -79.61922 32921 ft 483 kts 26°
2026-04-25 14:23 34.43656 -79.58211 32917 ft 483 kts 26°
2026-04-25 14:24 34.49649 -79.54491 32917 ft 483 kts 26°
2026-04-25 14:24 34.55631 -79.50769 32916 ft 484 kts 27°
2026-04-25 14:25 34.61531 -79.46827 32918 ft 484 kts 28°
2026-04-25 14:25 34.67402 -79.42818 32931 ft 484 kts 28°
2026-04-25 14:26 34.73292 -79.38844 32938 ft 484 kts 28°
2026-04-25 14:26 34.79188 -79.34858 32940 ft 485 kts 28°
2026-04-25 14:27 34.85081 -79.30862 32937 ft 485 kts 28°
2026-04-25 14:27 34.90988 -79.26850 32930 ft 486 kts 28°
2026-04-25 14:28 34.96886 -79.22838 32913 ft 486 kts 28°
2026-04-25 14:28 35.02779 -79.18823 32899 ft 486 kts 28°
2026-04-25 14:29 35.08687 -79.14789 32909 ft 487 kts 28°
2026-04-25 14:29 35.14607 -79.10742 32896 ft 488 kts 28°
2026-04-25 14:30 35.20530 -79.06685 32905 ft 488 kts 28°
2026-04-25 14:30 35.29419 -79.00585 32889 ft 489 kts 28°
2026-04-25 14:31 35.35233 -78.96586 32892 ft 490 kts 28°
2026-04-25 14:31 35.41170 -78.92495 32911 ft 490 kts 28°
2026-04-25 14:32 35.47116 -78.88389 32898 ft 490 kts 28°
2026-04-25 14:32 35.53018 -78.84302 32898 ft 490 kts 28°
2026-04-25 14:33 35.58960 -78.80180 32912 ft 491 kts 28°
2026-04-25 14:33 35.64904 -78.76057 32896 ft 490 kts 28°
2026-04-25 14:34 35.70849 -78.71936 32883 ft 490 kts 28°
2026-04-25 14:34 35.76796 -78.67807 32892 ft 491 kts 28°
2026-04-25 14:35 35.82745 -78.63668 32886 ft 491 kts 28°
2026-04-25 14:35 35.88698 -78.59518 32898 ft 492 kts 28°
2026-04-25 14:36 35.94652 -78.55359 32907 ft 492 kts 28°
2026-04-25 14:36 36.00606 -78.51192 32905 ft 493 kts 27°
2026-04-25 14:37 36.06565 -78.47017 32914 ft 493 kts 27°
2026-04-25 14:37 36.12535 -78.42825 32915 ft 493 kts 27°
2026-04-25 14:38 36.18512 -78.38621 32919 ft 494 kts 27°
2026-04-25 14:38 36.24493 -78.34406 32895 ft 495 kts 27°
2026-04-25 14:39 36.30480 -78.30179 32889 ft 495 kts 27°
2026-04-25 14:39 36.36500 -78.26026 32890 ft 494 kts 23°
2026-04-25 14:40 36.42878 -78.23019 32891 ft 489 kts 13°
2026-04-25 14:40 36.49433 -78.20713 32881 ft 489 kts 12°
2026-04-25 14:41 36.55986 -78.18407 32874 ft 490 kts 13°
2026-04-25 14:41 36.62531 -78.16053 32952 ft 490 kts 13°
2026-04-25 14:42 36.67971 -78.14074 32965 ft 490 kts 13°
2026-04-25 14:42 36.75628 -78.11280 32945 ft 491 kts 13°
2026-04-25 14:43 36.82185 -78.08886 32933 ft 491 kts 13°
2026-04-25 14:43 36.88748 -78.06486 32927 ft 491 kts 12°
2026-04-25 14:44 36.95314 -78.04082 32885 ft 492 kts 12°
2026-04-25 14:44 37.01823 -78.01694 32892 ft 492 kts 12°
2026-04-25 14:45 37.08266 -77.99326 32896 ft 492 kts 12°
2026-04-25 14:45 37.14839 -77.96904 32898 ft 493 kts 12°
2026-04-25 14:46 37.21422 -77.94477 32893 ft 493 kts 12°
2026-04-25 14:46 37.28005 -77.92043 32879 ft 493 kts 12°
2026-04-25 14:47 37.33462 -77.90023 32897 ft 492 kts 12°
2026-04-25 14:47 37.41139 -77.87175 32892 ft 492 kts 12°
2026-04-25 14:48 37.47697 -77.84738 32907 ft 492 kts 12°
2026-04-25 14:48 37.54230 -77.82185 32909 ft 494 kts 17°
2026-04-25 14:49 37.60603 -77.78878 32918 ft 496 kts 18°
2026-04-25 14:49 37.66972 -77.75458 32931 ft 497 kts 18°
2026-04-25 14:50 37.73347 -77.72068 32929 ft 497 kts 18°
2026-04-25 14:50 37.79734 -77.68698 32934 ft 497 kts 18°
2026-04-25 14:51 37.86080 -77.65352 32936 ft 498 kts 18°
2026-04-25 14:51 37.92469 -77.61974 32935 ft 498 kts 18°
2026-04-25 14:52 37.98861 -77.58586 32934 ft 498 kts 18°
2026-04-25 14:52 38.04204 -77.55749 32938 ft 497 kts 17°
2026-04-25 14:53 38.11613 -77.51807 32935 ft 496 kts 18°
2026-04-25 14:53 38.17974 -77.48416 32936 ft 496 kts 18°
2026-04-25 14:54 38.24337 -77.45018 32948 ft 496 kts 17°
2026-04-25 14:54 38.30702 -77.41611 32938 ft 496 kts 17°
2026-04-25 14:55 38.37043 -77.38112 32950 ft 499 kts 22°
2026-04-25 14:55 38.42814 -77.33030 32967 ft 510 kts 37°
2026-04-25 14:56 38.47702 -77.26367 32961 ft 516 kts 45°
2026-04-25 14:56 38.52380 -77.19415 32963 ft 516 kts 44°
2026-04-25 14:57 38.57097 -77.12499 32962 ft 516 kts 44°
2026-04-25 14:57 38.61842 -77.05624 32960 ft 516 kts 44°
2026-04-25 14:58 38.66513 -76.98855 32969 ft 516 kts 44°
2026-04-25 14:58 38.71256 -76.91954 32965 ft 516 kts 44°
2026-04-25 14:59 38.75993 -76.85045 32965 ft 516 kts 44°
2026-04-25 14:59 38.80719 -76.78135 32974 ft 515 kts 44°
2026-04-25 15:00 38.85432 -76.71226 32979 ft 515 kts 44°
2026-04-25 15:00 38.90139 -76.64309 32978 ft 514 kts 44°
2026-04-25 15:01 38.94836 -76.57391 32997 ft 514 kts 44°
2026-04-25 15:01 38.99534 -76.50458 32999 ft 514 kts 44°
2026-04-25 15:02 39.04215 -76.43534 32985 ft 514 kts 44°
2026-04-25 15:02 39.08901 -76.36587 33006 ft 513 kts 44°
2026-04-25 15:03 39.13572 -76.29648 33007 ft 513 kts 44°
2026-04-25 15:03 39.18238 -76.22699 33011 ft 512 kts 44°
2026-04-25 15:04 39.22899 -76.15742 33024 ft 513 kts 44°
2026-04-25 15:04 39.26769 -76.09958 33020 ft 513 kts 44°
2026-04-25 15:05 39.31433 -76.02996 33015 ft 512 kts 44°
2026-04-25 15:06 39.38333 -75.92673 33021 ft 512 kts 44°
2026-04-25 15:06 39.42979 -75.85698 33016 ft 512 kts 44°
2026-04-25 15:07 39.47622 -75.78712 33022 ft 512 kts 44°
2026-04-25 15:07 39.52258 -75.71718 33037 ft 512 kts 43°
2026-04-25 15:08 39.56890 -75.64717 33040 ft 511 kts 43°
2026-04-25 15:08 39.61517 -75.57706 33042 ft 512 kts 43°
2026-04-25 15:09 39.66123 -75.50661 33041 ft 513 kts 46°
2026-04-25 15:09 39.72480 -75.39405 33052 ft 516 kts 48°
2026-04-25 15:10 39.76665 -75.31834 33066 ft 516 kts 48°
2026-04-25 15:11 39.82983 -75.20491 33062 ft 516 kts 48°
2026-04-25 15:11 39.87189 -75.12934 33065 ft 516 kts 48°
2026-04-25 15:12 39.93485 -75.01579 33096 ft 515 kts 48°
2026-04-25 15:12 39.96857 -74.95483 33086 ft 515 kts 48°
2026-04-25 15:13 40.03526 -74.82518 33084 ft 516 kts 51°
2026-04-25 15:14 40.07454 -74.74694 33077 ft 515 kts 50°
2026-04-25 15:14 40.11402 -74.66905 33087 ft 514 kts 50°
2026-04-25 15:15 40.14686 -74.60429 33086 ft 514 kts 50°
2026-04-25 15:15 40.19441 -74.51483 33074 ft 508 kts 43°
2026-04-25 15:16 40.24319 -74.44935 33081 ft 497 kts 33°
2026-04-25 15:16 40.32359 -74.36478 33088 ft 497 kts 32°
2026-04-25 15:17 40.40431 -74.27897 33117 ft 498 kts 32°
2026-04-25 15:18 40.45793 -74.22133 33124 ft 498 kts 32°
2026-04-25 15:18 40.53825 -74.13485 33144 ft 498 kts 32°
2026-04-25 15:19 40.58321 -74.08640 33137 ft 499 kts 32°
2026-04-25 15:19 40.64570 -74.01897 33140 ft 500 kts 32°
2026-04-25 15:20 40.69858 -73.96173 33146 ft 498 kts 32°
2026-04-25 15:20 40.75189 -73.90390 33112 ft 495 kts 32°
2026-04-25 15:21 40.80497 -73.84622 33121 ft 493 kts 32°
2026-04-25 15:21 40.85977 -73.79307 33125 ft 482 kts 22°
2026-04-25 15:22 40.91921 -73.75486 33120 ft 470 kts 12°
2026-04-25 15:22 40.98071 -73.72599 33125 ft 469 kts 11°
2026-04-25 15:23 41.04242 -73.69715 33129 ft 471 kts 12°
2026-04-25 15:23 41.10409 -73.66772 33124 ft 472 kts 12°
2026-04-25 15:24 41.16587 -73.63797 33135 ft 472 kts 12°
2026-04-25 15:24 41.21721 -73.61323 33126 ft 472 kts 12°
2026-04-25 15:25 41.28972 -73.58242 33129 ft 462 kts
2026-04-25 15:25 41.35247 -73.57053 33145 ft 453 kts 358°
2026-04-25 15:26 41.41480 -73.56256 33139 ft 452 kts 358°
2026-04-25 15:26 41.47730 -73.55452 33144 ft 452 kts 358°
2026-04-25 15:27 41.53988 -73.54619 33110 ft 452 kts 359°
2026-04-25 15:28 41.63367 -73.53343 33111 ft 452 kts 359°
2026-04-25 15:28 41.69620 -73.52489 33111 ft 452 kts 359°
2026-04-25 15:29 41.75888 -73.51630 33099 ft 453 kts 359°
2026-04-25 15:29 41.82166 -73.50770 33119 ft 454 kts 359°
2026-04-25 15:30 41.88457 -73.49908 33100 ft 455 kts 359°
2026-04-25 15:30 41.94754 -73.49041 33106 ft 455 kts 359°
2026-04-25 15:31 42.01051 -73.48172 33089 ft 454 kts 359°
2026-04-25 15:31 42.07334 -73.47305 33068 ft 454 kts 359°
2026-04-25 15:32 42.13616 -73.46434 33076 ft 453 kts 359°
2026-04-25 15:32 42.19884 -73.45566 33081 ft 452 kts 359°
2026-04-25 15:33 42.29268 -73.44261 33078 ft 452 kts 358°
2026-04-25 15:33 42.35524 -73.43389 33086 ft 452 kts 359°
2026-04-25 15:34 42.41792 -73.42515 33085 ft 453 kts 359°
2026-04-25 15:34 42.45990 -73.41927 33088 ft 454 kts 358°
2026-04-25 15:35 42.57514 -73.40314 33081 ft 455 kts 358°
2026-04-25 15:36 42.66963 -73.38984 33106 ft 455 kts 358°
2026-04-25 15:36 42.73234 -73.38100 33101 ft 455 kts 358°
2026-04-25 15:37 42.79536 -73.37210 33107 ft 455 kts 358°
2026-04-25 15:37 42.85886 -73.36312 33107 ft 456 kts 358°
2026-04-25 15:38 42.92204 -73.35418 33113 ft 456 kts 358°
2026-04-25 15:38 42.98522 -73.34520 33105 ft 457 kts 358°
2026-04-25 15:39 43.04803 -73.33754 33099 ft 456 kts 356°
2026-04-25 15:39 43.11126 -73.33129 33093 ft 456 kts 356°
2026-04-25 15:40 43.15354 -73.32713 33099 ft 456 kts 356°
2026-04-25 15:40 43.23783 -73.31852 33105 ft 457 kts 356°
2026-04-25 15:41 43.30126 -73.31187 33114 ft 457 kts 356°
2026-04-25 15:41 43.36468 -73.30523 33098 ft 457 kts 356°
2026-04-25 15:42 43.42808 -73.29858 33121 ft 456 kts 356°
2026-04-25 15:42 43.49127 -73.29191 33103 ft 455 kts 356°
2026-04-25 15:43 43.55422 -73.28525 33106 ft 452 kts 356°
2026-04-25 15:43 43.61687 -73.27864 33104 ft 451 kts 356°
2026-04-25 15:44 43.67936 -73.27206 33106 ft 450 kts 356°
2026-04-25 15:44 43.74180 -73.26543 33106 ft 450 kts 356°
2026-04-25 15:45 43.80430 -73.25880 33112 ft 451 kts 356°
2026-04-25 15:45 43.84619 -73.25435 33086 ft 452 kts 356°
2026-04-25 15:46 43.92994 -73.24546 33105 ft 455 kts 356°
2026-04-25 15:46 43.99317 -73.23606 33090 ft 468 kts
2026-04-25 15:47 44.02362 -73.21797 33115 ft 487 kts 23°
2026-04-25 15:47 44.05113 -73.18927 33108 ft 506 kts 37°
2026-04-25 15:47 44.07339 -73.15057 33118 ft 516 kts 48°
2026-04-25 15:47 44.09352 -73.10902 33114 ft 519 kts 49°
2026-04-25 15:48 44.13328 -73.02517 33113 ft 517 kts 49°
2026-04-25 15:48 44.17216 -72.94450 33133 ft 509 kts 47°
2026-04-25 15:49 44.20542 -72.87683 33144 ft 509 kts 47°
2026-04-25 15:49 44.24567 -72.79544 33145 ft 511 kts 47°
2026-04-25 15:50 44.28593 -72.71373 33167 ft 511 kts 47°
2026-04-25 15:50 44.32613 -72.63171 33131 ft 512 kts 47°
2026-04-25 15:51 44.35943 -72.56352 33131 ft 511 kts 47°
2026-04-25 15:51 44.40613 -72.46762 33132 ft 509 kts 47°
2026-04-25 15:52 44.44557 -72.38628 33141 ft 500 kts 47°
2026-04-25 15:52 44.48449 -72.30591 33136 ft 499 kts 47°
2026-04-25 15:53 44.52352 -72.22526 33140 ft 500 kts 47°
2026-04-25 15:53 44.56251 -72.14438 33131 ft 501 kts 47°
2026-04-25 15:54 44.60143 -72.06334 33118 ft 501 kts 47°
2026-04-25 15:54 44.63946 -71.98391 33118 ft 499 kts 47°
2026-04-25 15:55 44.67810 -71.90299 33127 ft 498 kts 47°
2026-04-25 15:55 44.71657 -71.82222 33150 ft 496 kts 47°
2026-04-25 15:56 44.75494 -71.74146 33132 ft 495 kts 47°
2026-04-25 15:56 44.79283 -71.66147 33123 ft 494 kts 47°
2026-04-25 15:57 44.83075 -71.58119 33124 ft 492 kts 47°
2026-04-25 15:57 44.86865 -71.50074 33168 ft 492 kts 46°
2026-04-25 15:58 44.90647 -71.42026 33139 ft 493 kts 46°
2026-04-25 15:58 44.94429 -71.33953 33139 ft 492 kts 46°
2026-04-25 15:59 44.98197 -71.25885 33141 ft 492 kts 46°
2026-04-25 15:59 45.00084 -71.21842 33328 ft 495 kts 46°
2026-04-25 15:59 45.01967 -71.17795 33882 ft 490 kts 47°
2026-04-25 16:00 45.03822 -71.13795 34388 ft 485 kts 47°
2026-04-25 16:00 45.04447 -71.12449 34511 ft 484 kts 47°
2026-04-25 16:00 45.07513 -71.05846 35001 ft 483 kts 47°
2026-04-25 16:00 45.09359 -71.01860 35062 ft 486 kts 49°
2026-04-25 16:01 45.12503 -70.93456 35130 ft 497 kts 57°
2026-04-25 16:01 45.15260 -70.84475 35131 ft 496 kts 58°
2026-04-25 16:02 45.17989 -70.75509 35142 ft 495 kts 58°
2026-04-25 16:02 45.20747 -70.66569 35135 ft 494 kts 58°
2026-04-25 16:03 45.23516 -70.57645 35139 ft 494 kts 58°
2026-04-25 16:03 45.26283 -70.48711 35130 ft 495 kts 58°
2026-04-25 16:04 45.29053 -70.39737 35124 ft 497 kts 58°
2026-04-25 16:04 45.31820 -70.30729 35132 ft 499 kts 58°
2026-04-25 16:05 45.34593 -70.21664 35132 ft 501 kts 59°
2026-04-25 16:06 45.38747 -70.08019 35127 ft 502 kts 59°
2026-04-25 16:06 45.41455 -69.99088 35147 ft 502 kts 60°
2026-04-25 16:07 45.44213 -69.89955 35127 ft 502 kts 60°
2026-04-25 16:07 45.46961 -69.80823 35128 ft 501 kts 60°
2026-04-25 16:08 45.49698 -69.71697 35120 ft 500 kts 60°
2026-04-25 16:08 45.52422 -69.62584 35114 ft 499 kts 60°
2026-04-25 16:09 45.55130 -69.53482 35123 ft 498 kts 61°
2026-04-25 16:09 45.57826 -69.44401 35115 ft 496 kts 62°
2026-04-25 16:10 45.60484 -69.35412 35120 ft 494 kts 62°
2026-04-25 16:10 45.63162 -69.26319 35113 ft 493 kts 62°
2026-04-25 16:11 45.65811 -69.17296 35116 ft 492 kts 62°
2026-04-25 16:11 45.68449 -69.08274 35118 ft 492 kts 62°
2026-04-25 16:12 45.71014 -68.99473 35118 ft 492 kts 62°
2026-04-25 16:12 45.73654 -68.90381 35114 ft 491 kts 62°
2026-04-25 16:13 45.76253 -68.81398 35110 ft 491 kts 62°
2026-04-25 16:13 45.78860 -68.72353 35126 ft 491 kts 63°
2026-04-25 16:14 45.81465 -68.63285 35109 ft 492 kts 63°
2026-04-25 16:14 45.84057 -68.54223 35103 ft 491 kts 63°
2026-04-25 16:15 45.86642 -68.45153 35104 ft 491 kts 63°
2026-04-25 16:15 45.89220 -68.36076 35090 ft 491 kts 63°
2026-04-25 16:16 45.91789 -68.27000 35114 ft 490 kts 64°
2026-04-25 16:16 45.94349 -68.17918 35093 ft 490 kts 64°
2026-04-25 16:17 45.96899 -68.08843 35084 ft 489 kts 64°
2026-04-25 16:17 45.99412 -67.99865 35069 ft 488 kts 65°
2026-04-25 16:18 46.01914 -67.90899 35062 ft 487 kts 65°
2026-04-25 16:18 46.04724 -67.82114 35080 ft 482 kts 57°
2026-04-25 16:19 46.08439 -67.74224 35074 ft 477 kts 51°
2026-04-25 16:19 46.12365 -67.66438 35069 ft 477 kts 51°
2026-04-25 16:20 46.18182 -67.54787 35068 ft 477 kts 51°
2026-04-25 16:21 46.23934 -67.43119 35063 ft 478 kts 52°
2026-04-25 16:21 46.27786 -67.35272 35077 ft 478 kts 52°
2026-04-25 16:22 46.31629 -67.27422 35059 ft 478 kts 52°
2026-04-25 16:22 46.35469 -67.19558 35063 ft 478 kts 53°
2026-04-25 16:23 46.39300 -67.11689 35059 ft 477 kts 52°
2026-04-25 16:23 46.43113 -67.03834 35051 ft 476 kts 53°
2026-04-25 16:24 46.46838 -66.96144 35052 ft 475 kts 52°
2026-04-25 16:24 46.50619 -66.88311 35056 ft 474 kts 52°
2026-04-25 16:25 46.54394 -66.80472 35049 ft 473 kts 52°
2026-04-25 16:25 46.58161 -66.72626 35057 ft 474 kts 53°
2026-04-25 16:26 46.61928 -66.64761 35051 ft 474 kts 53°
2026-04-25 16:26 46.65696 -66.56869 35066 ft 475 kts 53°
2026-04-25 16:27 46.69458 -66.48969 35047 ft 474 kts 54°
2026-04-25 16:27 46.73204 -66.41078 35034 ft 473 kts 53°
2026-04-25 16:28 46.76936 -66.33194 35046 ft 472 kts 53°
2026-04-25 16:28 46.80653 -66.25317 35057 ft 471 kts 53°
2026-04-25 16:29 46.84332 -66.17501 35047 ft 469 kts 53°
2026-04-25 16:29 46.88013 -66.09659 35059 ft 467 kts 54°
2026-04-25 16:30 46.91683 -66.01825 35067 ft 466 kts 54°
2026-04-25 16:30 46.95159 -65.94380 35069 ft 465 kts 54°
2026-04-25 16:31 46.98800 -65.86557 35053 ft 466 kts 54°
2026-04-25 16:31 47.02456 -65.78681 35065 ft 471 kts 54°
2026-04-25 16:32 47.06148 -65.70707 35059 ft 474 kts 54°
2026-04-25 16:32 47.09849 -65.62688 35059 ft 475 kts 55°
2026-04-25 16:33 47.13526 -65.54694 35045 ft 469 kts 55°
2026-04-25 16:33 47.17152 -65.46791 35050 ft 465 kts 54°
2026-04-25 16:34 47.20761 -65.38901 35046 ft 464 kts 54°
2026-04-25 16:34 47.24357 -65.31022 35050 ft 464 kts 54°
2026-04-25 16:35 47.27958 -65.23108 35050 ft 468 kts 55°
2026-04-25 16:35 47.31595 -65.15092 35040 ft 473 kts 55°
2026-04-25 16:36 47.35262 -65.06989 35026 ft 476 kts 55°
2026-04-25 16:36 47.38857 -64.99015 35022 ft 476 kts 55°
2026-04-25 16:37 47.41896 -64.92256 35013 ft 474 kts 55°
2026-04-25 16:37 47.46110 -64.82858 35007 ft 471 kts 55°
2026-04-25 16:38 47.49127 -64.76109 35007 ft 468 kts 55°
2026-04-25 16:38 47.52704 -64.68087 35008 ft 466 kts 55°
2026-04-25 16:39 47.56265 -64.60079 35007 ft 465 kts 55°
2026-04-25 16:39 47.59815 -64.52073 35009 ft 465 kts 55°
2026-04-25 16:40 47.63361 -64.44053 35025 ft 466 kts 55°
2026-04-25 16:40 47.66915 -64.35991 35011 ft 467 kts 55°
2026-04-25 16:41 47.70471 -64.27898 35010 ft 468 kts 55°
2026-04-25 16:41 47.75780 -64.15771 34992 ft 469 kts 56°
2026-04-25 16:42 47.79325 -64.07646 34991 ft 468 kts 55°
2026-04-25 16:42 47.82781 -63.99703 34988 ft 468 kts 54°
2026-04-25 16:43 47.86306 -63.91571 34990 ft 467 kts 54°
2026-04-25 16:43 47.89820 -63.83440 34977 ft 466 kts 55°
2026-04-25 16:44 47.93321 -63.75315 34977 ft 465 kts 54°
2026-04-25 16:44 47.96813 -63.67187 34973 ft 465 kts 55°
2026-04-25 16:45 48.00288 -63.59079 34971 ft 466 kts 54°
2026-04-25 16:45 48.03781 -63.50905 34965 ft 467 kts 54°
2026-04-25 16:46 48.07281 -63.42690 34968 ft 470 kts 54°
2026-04-25 16:46 48.10224 -63.35762 34968 ft 473 kts 54°
2026-04-25 16:47 48.14326 -63.26074 34976 ft 475 kts 54°
2026-04-25 16:47 48.17868 -63.17681 34954 ft 477 kts 54°
2026-04-25 16:48 48.21414 -63.09250 34962 ft 478 kts 54°
2026-04-25 16:48 48.24958 -63.00798 34952 ft 478 kts 54°
2026-04-25 16:49 48.28423 -62.92508 34941 ft 478 kts 55°
2026-04-25 16:49 48.31947 -62.84053 34946 ft 477 kts 55°
2026-04-25 16:50 48.35460 -62.75595 34934 ft 477 kts 55°
2026-04-25 16:50 48.38958 -62.67151 34931 ft 475 kts 55°
2026-04-25 16:51 48.42447 -62.58699 34928 ft 474 kts 55°
2026-04-25 16:51 48.45334 -62.51687 34934 ft 474 kts 55°
2026-04-25 16:52 48.49387 -62.41810 34924 ft 473 kts 55°
2026-04-25 16:52 48.52842 -62.33364 34912 ft 473 kts 55°
2026-04-25 16:53 48.58011 -62.20674 34898 ft 473 kts 55°
2026-04-25 16:54 48.61449 -62.12202 34912 ft 473 kts 55°
2026-04-25 16:54 48.64882 -62.03715 34901 ft 473 kts 55°
2026-04-25 16:55 48.68228 -61.95416 34897 ft 473 kts 56°
2026-04-25 16:55 48.71612 -61.86991 34732 ft 465 kts 55°
2026-04-25 16:55 48.73286 -61.82814 34493 ft 464 kts 55°
2026-04-25 16:56 48.74959 -61.78635 34280 ft 463 kts 55°
2026-04-25 16:56 48.76624 -61.74471 34081 ft 461 kts 55°
2026-04-25 16:56 48.78290 -61.70299 33944 ft 463 kts 55°
2026-04-25 16:57 48.81650 -61.61872 33896 ft 470 kts 55°
2026-04-25 16:57 48.85010 -61.53410 33864 ft 471 kts 55°
2026-04-25 16:58 48.88383 -61.44881 33865 ft 471 kts 55°
2026-04-25 16:58 48.91754 -61.36328 33862 ft 472 kts 55°
2026-04-25 16:59 48.95124 -61.27755 33871 ft 473 kts 56°
2026-04-25 16:59 48.98495 -61.19153 33856 ft 473 kts 56°
2026-04-25 17:00 49.01856 -61.10549 33858 ft 474 kts 56°
2026-04-25 17:00 49.05219 -61.01909 33865 ft 475 kts 56°
2026-04-25 17:01 49.08531 -60.93375 33868 ft 477 kts 56°
2026-04-25 17:01 49.11907 -60.84646 33848 ft 478 kts 56°
2026-04-25 17:02 49.15280 -60.75894 33837 ft 478 kts 56°
2026-04-25 17:02 49.18644 -60.67138 33857 ft 477 kts 56°
2026-04-25 17:03 49.21991 -60.58395 33829 ft 476 kts 56°
2026-04-25 17:03 49.25318 -60.49677 33822 ft 473 kts 57°
2026-04-25 17:04 49.28625 -60.40981 33820 ft 471 kts 57°
2026-04-25 17:04 49.31913 -60.32308 33821 ft 470 kts 57°
2026-04-25 17:05 49.35188 -60.23643 33825 ft 470 kts 57°
2026-04-25 17:05 49.40073 -60.10663 33821 ft 471 kts 57°
2026-04-25 17:06 49.43349 -60.01925 33814 ft 473 kts 57°
2026-04-25 17:06 49.46555 -59.93342 33809 ft 475 kts 57°
2026-04-25 17:07 49.49840 -59.84518 33809 ft 476 kts 57°
2026-04-25 17:07 49.53122 -59.75670 33803 ft 476 kts 57°
2026-04-25 17:08 49.56401 -59.66801 33803 ft 477 kts 57°
2026-04-25 17:08 49.59676 -59.57913 33803 ft 477 kts 57°
2026-04-25 17:09 49.62941 -59.49022 33809 ft 476 kts 58°
2026-04-25 17:09 49.66198 -59.40123 33789 ft 476 kts 58°
2026-04-25 17:10 49.69408 -59.31316 33780 ft 466 kts 58°
2026-04-25 17:10 49.72577 -59.22597 33809 ft 466 kts 58°
2026-04-25 17:11 49.75746 -59.13852 33804 ft 466 kts 58°
2026-04-25 17:11 49.78910 -59.05092 33782 ft 467 kts 58°
2026-04-25 17:12 49.82006 -58.96487 33780 ft 467 kts 58°
2026-04-25 17:12 49.85162 -58.87689 33780 ft 467 kts 58°
2026-04-25 17:13 49.87270 -58.81793 33782 ft 467 kts 59°
2026-04-25 17:13 49.91453 -58.70054 33782 ft 467 kts 59°
2026-04-25 17:14 49.94583 -58.61235 33781 ft 467 kts 59°
2026-04-25 17:14 49.97709 -58.52399 33770 ft 466 kts 59°
2026-04-25 17:15 50.00815 -58.43588 33765 ft 466 kts 59°
2026-04-25 17:15 50.03917 -58.34756 33776 ft 465 kts 59°
2026-04-25 17:16 50.07012 -58.25917 33754 ft 465 kts 60°
2026-04-25 17:16 50.10100 -58.17065 33755 ft 466 kts 60°
2026-04-25 17:17 50.13185 -58.08192 33754 ft 466 kts 60°
2026-04-25 17:17 50.16206 -57.99472 33757 ft 466 kts 60°
2026-04-25 17:18 50.19279 -57.90579 33754 ft 466 kts 60°
2026-04-25 17:18 50.22347 -57.81659 33755 ft 466 kts 60°
2026-04-25 17:19 50.25408 -57.72729 33758 ft 467 kts 60°
2026-04-25 17:19 50.28466 -57.63778 33759 ft 467 kts 61°
2026-04-25 17:20 50.31516 -57.54818 33762 ft 467 kts 61°
2026-04-25 17:20 50.34559 -57.45849 33760 ft 466 kts 61°
2026-04-25 17:21 50.37592 -57.36876 33761 ft 466 kts 61°
2026-04-25 17:21 50.40105 -57.29417 33774 ft 465 kts 61°
2026-04-25 17:22 50.42609 -57.21965 33772 ft 465 kts 61°
2026-04-25 17:22 50.46117 -57.11483 33754 ft 464 kts 61°
2026-04-25 17:23 50.49109 -57.02513 33750 ft 463 kts 61°
2026-04-25 17:23 50.52023 -56.93742 33748 ft 462 kts 61°
2026-04-25 17:24 50.54989 -56.84785 33747 ft 462 kts 62°
2026-04-25 17:24 50.57949 -56.75811 33745 ft 462 kts 62°
2026-04-25 17:25 50.60901 -56.66833 33740 ft 462 kts 62°
2026-04-25 17:25 50.63841 -56.57857 33731 ft 461 kts 62°
2026-04-25 17:26 50.66771 -56.48880 33734 ft 461 kts 62°
2026-04-25 17:26 50.69697 -56.39885 33725 ft 460 kts 62°
2026-04-25 17:27 50.72608 -56.30897 33726 ft 460 kts 62°
2026-04-25 17:27 50.75031 -56.23396 33705 ft 461 kts 62°
2026-04-25 17:28 50.78427 -56.12846 33707 ft 461 kts 62°
2026-04-25 17:28 50.81318 -56.03825 33709 ft 459 kts 62°
2026-04-25 17:29 50.84130 -55.95022 33703 ft 458 kts 62°
2026-04-25 17:29 50.86992 -55.86026 33675 ft 457 kts 62°
2026-04-25 17:30 50.89842 -55.77036 33677 ft 457 kts 62°
2026-04-25 17:30 50.92668 -55.68091 33688 ft 458 kts 62°
2026-04-25 17:31 50.95522 -55.59026 33684 ft 462 kts 62°
2026-04-25 17:31 50.98391 -55.49879 33651 ft 464 kts 63°
2026-04-25 17:32 51.01243 -55.40750 33656 ft 461 kts 63°
2026-04-25 17:32 51.04071 -55.31663 33676 ft 457 kts 63°
2026-04-25 17:33 51.06874 -55.22625 33658 ft 454 kts 63°
2026-04-25 17:33 51.09666 -55.13587 33649 ft 457 kts 63°
2026-04-25 17:34 51.12471 -55.04479 33632 ft 460 kts 63°
2026-04-25 17:34 51.15232 -54.95478 33633 ft 463 kts 63°
2026-04-25 17:35 51.18058 -54.86228 33630 ft 464 kts 63°
2026-04-25 17:35 51.20867 -54.77000 33622 ft 461 kts 63°
2026-04-25 17:36 51.23649 -54.67824 33604 ft 458 kts 64°
2026-04-25 17:36 51.26406 -54.58694 33610 ft 456 kts 63°
2026-04-25 17:37 51.29159 -54.49548 33623 ft 459 kts 64°
2026-04-25 17:37 51.31935 -54.40293 33615 ft 465 kts 64°
2026-04-25 17:38 51.34253 -54.32539 33603 ft 464 kts 64°
2026-04-25 17:38 51.37490 -54.21661 33608 ft 462 kts 64°
2026-04-25 17:39 51.40240 -54.12382 33597 ft 460 kts 64°
2026-04-25 17:39 51.42972 -54.03135 33594 ft 459 kts 64°
2026-04-25 17:40 51.45640 -53.94071 33587 ft 459 kts 64°
2026-04-25 17:40 51.48226 -53.84716 33591 ft 460 kts 69°
2026-04-25 17:41 51.49908 -53.74877 33593 ft 461 kts 75°
2026-04-25 17:41 51.51373 -53.64830 33595 ft 463 kts 75°
2026-04-25 17:42 51.52852 -53.54755 33578 ft 463 kts 75°
2026-04-25 17:42 51.54343 -53.44690 33585 ft 463 kts 76°
2026-04-25 17:43 51.55830 -53.34639 33576 ft 462 kts 75°
2026-04-25 17:43 51.57309 -53.24594 33564 ft 461 kts 75°
2026-04-25 17:44 51.58777 -53.14550 33567 ft 461 kts 76°
2026-04-25 17:44 51.60237 -53.04499 33560 ft 462 kts 76°
2026-04-25 17:45 51.61174 -52.98002 33567 ft 462 kts 76°
2026-04-25 17:45 51.63100 -52.84581 33542 ft 463 kts 76°
2026-04-25 17:46 51.64536 -52.74495 33546 ft 462 kts 76°
2026-04-25 17:46 51.65962 -52.64412 33544 ft 462 kts 76°
2026-04-25 17:47 51.67377 -52.54331 33529 ft 462 kts 76°
2026-04-25 17:47 51.68787 -52.44224 33525 ft 462 kts 76°
2026-04-25 17:48 51.70886 -52.29056 33530 ft 463 kts 76°
2026-04-25 17:49 51.72275 -52.18923 33533 ft 462 kts 76°
2026-04-25 17:49 51.73652 -52.08818 33526 ft 461 kts 77°
2026-04-25 17:50 51.74987 -51.98945 33512 ft 461 kts 77°
2026-04-25 17:50 51.76345 -51.88841 33516 ft 461 kts 77°
2026-04-25 17:51 51.77695 -51.78728 33513 ft 461 kts 77°
2026-04-25 17:51 51.78514 -51.68561 33503 ft 463 kts 93°
2026-04-25 17:52 51.77306 -51.58325 33504 ft 459 kts 92°
2026-04-25 17:52 51.78177 -51.48173 33535 ft 461 kts 76°
2026-04-25 17:53 51.79597 -51.38065 33514 ft 466 kts 77°
2026-04-25 17:53 51.80931 -51.27859 33492 ft 462 kts 77°
2026-04-25 17:54 51.82224 -51.17721 33509 ft 459 kts 78°
2026-04-25 17:54 51.83505 -51.07600 33495 ft 461 kts 78°
2026-04-25 17:55 51.84765 -50.97601 33493 ft 465 kts 78°
2026-04-25 17:55 51.86050 -50.87342 33494 ft 466 kts 78°
2026-04-25 17:56 51.87328 -50.77064 33487 ft 466 kts 78°
2026-04-25 17:56 51.88597 -50.66773 33480 ft 466 kts 78°
2026-04-25 17:57 51.89854 -50.56497 33475 ft 464 kts 78°
2026-04-25 17:57 51.91098 -50.46256 33480 ft 463 kts 78°
2026-04-25 17:58 51.92333 -50.36021 33468 ft 463 kts 78°
2026-04-25 17:58 51.93558 -50.25784 33479 ft 463 kts 78°
2026-04-25 17:59 51.94777 -50.15525 33467 ft 464 kts 78°
2026-04-25 17:59 51.95984 -50.05300 33461 ft 465 kts 79°
2026-04-25 18:00 51.97190 -49.95215 33462 ft 466 kts 77°
2026-04-25 18:00 51.98648 -49.84975 33465 ft 466 kts 76°
2026-04-25 18:01 52.00166 -49.74756 33466 ft 467 kts 76°
2026-04-25 18:01 52.01668 -49.64427 33464 ft 467 kts 77°
2026-04-25 18:02 52.03120 -49.54218 33465 ft 467 kts 77°
2026-04-25 18:02 52.04563 -49.43945 33459 ft 466 kts 77°
2026-04-25 18:03 52.05997 -49.33664 33458 ft 466 kts 77°
2026-04-25 18:03 52.07420 -49.23397 33460 ft 465 kts 77°
2026-04-25 18:04 52.08832 -49.13140 33456 ft 465 kts 77°
2026-04-25 18:04 52.10235 -49.02880 33458 ft 465 kts 77°
2026-04-25 18:05 52.11600 -48.92831 33449 ft 465 kts 78°
2026-04-25 18:05 52.12986 -48.82555 33455 ft 465 kts 78°
2026-04-25 18:06 52.14362 -48.72274 33457 ft 465 kts 78°
2026-04-25 18:06 52.15729 -48.61993 33477 ft 465 kts 78°
2026-04-25 18:07 52.17090 -48.51682 33461 ft 466 kts 78°
2026-04-25 18:07 52.18443 -48.41356 33450 ft 466 kts 78°
2026-04-25 18:08 52.19789 -48.31010 33452 ft 466 kts 78°
2026-04-25 18:08 52.20900 -48.22418 33460 ft 466 kts 78°
2026-04-25 18:09 52.22228 -48.12072 33449 ft 466 kts 78°
2026-04-25 18:09 52.23546 -48.01724 33454 ft 466 kts 78°
2026-04-25 18:10 52.24831 -47.91564 33452 ft 466 kts 78°
2026-04-25 18:10 52.26130 -47.81214 33455 ft 466 kts 79°
2026-04-25 18:11 52.27421 -47.70856 33462 ft 465 kts 79°
2026-04-25 18:11 52.28701 -47.60494 33449 ft 465 kts 79°
2026-04-25 18:12 52.29970 -47.50154 33459 ft 464 kts 79°
2026-04-25 18:12 52.31229 -47.39811 33452 ft 463 kts 79°
2026-04-25 18:13 52.32468 -47.29550 33461 ft 463 kts 79°
2026-04-25 18:13 52.33707 -47.19220 33464 ft 463 kts 80°
2026-04-25 18:14 52.35551 -47.03680 33460 ft 464 kts 80°
2026-04-25 18:14 52.36750 -46.93476 33463 ft 463 kts 80°
2026-04-25 18:15 52.37956 -46.83134 33477 ft 463 kts 80°
2026-04-25 18:15 52.39146 -46.72843 33482 ft 463 kts 80°
2026-04-25 18:16 52.40337 -46.62463 33443 ft 464 kts 80°
2026-04-25 18:17 52.42103 -46.46915 33468 ft 462 kts 81°
2026-04-25 18:17 52.43272 -46.36516 33472 ft 461 kts 81°
2026-04-25 18:18 52.44414 -46.26265 33475 ft 460 kts 81°
2026-04-25 18:18 52.45554 -46.15952 33478 ft 460 kts 81°
2026-04-25 18:19 52.46685 -46.05630 33467 ft 460 kts 81°
2026-04-25 18:19 52.47780 -45.95559 33482 ft 462 kts 81°
2026-04-25 18:20 52.48901 -45.85154 33481 ft 464 kts 81°
2026-04-25 18:20 52.50017 -45.74709 33487 ft 466 kts 81°
2026-04-25 18:21 52.51135 -45.64217 33489 ft 467 kts 81°
2026-04-25 18:21 52.52250 -45.53693 33487 ft 468 kts 81°
2026-04-25 18:22 52.53347 -45.43155 33484 ft 468 kts 81°
2026-04-25 18:22 52.54433 -45.32597 33498 ft 469 kts 82°
2026-04-25 18:23 52.55512 -45.22021 33498 ft 469 kts 82°
2026-04-25 18:23 52.56583 -45.11435 33498 ft 470 kts 82°
2026-04-25 18:24 52.57646 -45.00834 33509 ft 470 kts 82°
2026-04-25 18:24 52.58674 -44.90482 33505 ft 469 kts 82°
2026-04-25 18:25 52.59718 -44.79880 33513 ft 469 kts 82°
2026-04-25 18:25 52.60749 -44.69293 33509 ft 469 kts 82°
2026-04-25 18:26 52.61772 -44.58701 33516 ft 469 kts 82°
2026-04-25 18:26 52.62785 -44.48100 33517 ft 468 kts 82°
2026-04-25 18:27 52.63787 -44.37510 33511 ft 468 kts 82°
2026-04-25 18:27 52.64780 -44.26918 33521 ft 468 kts 83°
2026-04-25 18:28 52.65759 -44.16374 33528 ft 471 kts 83°
2026-04-25 18:28 52.66746 -44.05610 33534 ft 473 kts 84°
2026-04-25 18:29 52.68183 -43.89769 33532 ft 477 kts 84°
2026-04-25 18:30 52.70113 -43.68104 33530 ft 478 kts 84°
2026-04-25 18:30 52.71062 -43.57268 33542 ft 477 kts 85°
2026-04-25 18:31 52.72000 -43.46437 33549 ft 477 kts 85°
2026-04-25 18:31 52.72933 -43.35556 33553 ft 476 kts 85°
2026-04-25 18:32 52.73850 -43.24750 33554 ft 475 kts 86°
2026-04-25 18:32 52.74752 -43.13973 33553 ft 474 kts 86°
2026-04-25 18:33 52.75642 -43.03243 33558 ft 472 kts 86°
2026-04-25 18:33 52.76502 -42.92743 33561 ft 470 kts 86°
2026-04-25 18:34 52.77369 -42.82044 33567 ft 470 kts 86°
2026-04-25 18:34 52.78219 -42.71424 33569 ft 469 kts 86°
2026-04-25 18:35 52.79064 -42.60749 33574 ft 469 kts 86°
2026-04-25 18:35 52.79901 -42.50048 33563 ft 469 kts 87°
2026-04-25 18:36 52.80733 -42.39298 33572 ft 468 kts 87°
2026-04-25 18:36 52.81548 -42.28626 33584 ft 468 kts 87°
2026-04-25 18:37 52.82348 -42.18019 33591 ft 468 kts 87°
2026-04-25 18:37 52.83144 -42.07336 33592 ft 469 kts 87°
2026-04-25 18:38 52.83925 -41.96734 33590 ft 469 kts 88°
2026-04-25 18:38 52.84699 -41.86096 33591 ft 468 kts 88°
2026-04-25 18:39 52.85466 -41.75407 33602 ft 468 kts 88°
2026-04-25 18:39 52.86223 -41.64724 33602 ft 467 kts 88°
2026-04-25 18:40 52.86968 -41.54063 33584 ft 466 kts 88°
2026-04-25 18:40 52.87705 -41.43379 33605 ft 468 kts 88°
2026-04-25 18:41 52.88435 -41.32634 33596 ft 471 kts 88°
2026-04-25 18:41 52.89160 -41.21844 33613 ft 472 kts 88°
2026-04-25 18:42 52.89640 -41.14616 33628 ft 473 kts 88°
2026-04-25 18:42 52.90585 -41.00198 33616 ft 473 kts 88°
2026-04-25 18:43 52.91265 -40.89645 33625 ft 472 kts 88°
2026-04-25 18:43 52.91951 -40.78838 33627 ft 471 kts 89°
2026-04-25 18:44 52.92626 -40.68051 33629 ft 470 kts 89°
2026-04-25 18:44 52.93289 -40.57260 33626 ft 475 kts 89°
2026-04-25 18:45 52.93954 -40.46249 33910 ft 483 kts 89°
2026-04-25 18:45 52.94287 -40.40713 34179 ft 483 kts 89°
2026-04-25 18:45 52.94618 -40.35166 34285 ft 487 kts 89°
2026-04-25 18:46 52.95276 -40.24003 34008 ft 485 kts 89°
2026-04-25 18:46 52.95600 -40.18452 33744 ft 481 kts 89°
2026-04-25 18:46 52.95917 -40.12973 33673 ft 476 kts 89°
2026-04-25 18:47 52.96538 -40.02060 33667 ft 476 kts 89°
2026-04-25 18:47 52.97073 -39.91286 33661 ft 480 kts 90°
2026-04-25 18:48 52.97504 -39.80232 33660 ft 481 kts 91°
2026-04-25 18:48 52.97922 -39.69140 33638 ft 482 kts 91°
2026-04-25 18:49 52.98346 -39.58002 33658 ft 485 kts 91°
2026-04-25 18:49 52.98771 -39.46817 33662 ft 486 kts 90°
2026-04-25 18:50 52.99189 -39.35614 33667 ft 486 kts 91°
2026-04-25 18:50 52.99594 -39.24429 33675 ft 486 kts 91°
2026-04-25 18:51 52.99857 -39.17008 33678 ft 485 kts 91°
2026-04-25 18:51 53.00307 -39.03969 33687 ft 484 kts 91°
2026-04-25 18:52 53.00672 -38.93053 33681 ft 483 kts 91°
2026-04-25 18:52 53.01035 -38.81916 33660 ft 483 kts 91°
2026-04-25 18:53 53.01387 -38.70762 33692 ft 485 kts 91°
2026-04-25 18:53 53.01729 -38.59556 33702 ft 486 kts 91°
2026-04-25 18:54 53.02226 -38.42698 33690 ft 489 kts 91°
2026-04-25 18:55 53.02545 -38.31424 33681 ft 489 kts 91°
2026-04-25 18:55 53.02855 -38.20110 33699 ft 490 kts 91°
2026-04-25 18:56 53.03154 -38.08805 33702 ft 490 kts 92°
2026-04-25 18:56 53.03434 -37.97804 33713 ft 490 kts 92°
2026-04-25 18:57 53.03712 -37.86503 33708 ft 490 kts 92°
2026-04-25 18:57 53.03978 -37.75167 33726 ft 491 kts 92°
2026-04-25 18:58 53.04234 -37.63813 33710 ft 492 kts 92°
2026-04-25 18:58 53.04600 -37.46737 33736 ft 493 kts 92°
2026-04-25 18:59 53.05051 -37.23944 33745 ft 493 kts 92°
2026-04-25 19:00 53.05361 -37.06854 33738 ft 493 kts 92°
2026-04-25 19:01 53.05640 -36.90041 33749 ft 494 kts 92°
2026-04-25 19:01 53.05815 -36.78612 33762 ft 495 kts 92°
2026-04-25 19:02 53.06060 -36.61413 33758 ft 497 kts 93°
2026-04-25 19:03 53.06258 -36.46116 33767 ft 498 kts 93°
2026-04-25 19:03 53.06416 -36.32680 33767 ft 497 kts 93°
2026-04-25 19:04 53.06595 -36.15458 33772 ft 496 kts 93°
2026-04-25 19:05 53.06793 -35.92793 33782 ft 495 kts 93°
2026-04-25 19:06 53.06877 -35.81338 33765 ft 495 kts 93°
2026-04-25 19:06 53.06981 -35.64208 33790 ft 494 kts 93°
2026-04-25 19:07 53.07060 -35.47158 33798 ft 494 kts 94°
2026-04-25 19:08 53.07115 -35.30019 33792 ft 494 kts 94°
2026-04-25 19:09 53.07149 -35.09048 33808 ft 497 kts 94°
2026-04-25 19:10 53.07148 -34.90071 33823 ft 500 kts 94°
2026-04-25 19:10 53.07133 -34.78496 33820 ft 501 kts 94°
2026-04-25 19:11 53.07107 -34.66904 33829 ft 501 kts 94°
2026-04-25 19:11 53.07069 -34.55320 33822 ft 501 kts 94°
2026-04-25 19:12 53.07021 -34.43730 33828 ft 501 kts 94°
2026-04-25 19:12 53.06961 -34.32141 33844 ft 501 kts 94°
2026-04-25 19:13 53.06889 -34.20552 33851 ft 502 kts 94°
2026-04-25 19:13 53.06805 -34.08926 33857 ft 503 kts 94°
2026-04-25 19:14 53.06713 -33.97531 33851 ft 503 kts 94°
2026-04-25 19:14 53.06608 -33.85973 33857 ft 503 kts 94°
2026-04-25 19:15 53.06491 -33.74323 33864 ft 504 kts 94°
2026-04-25 19:15 53.06363 -33.62679 33864 ft 504 kts 94°
2026-04-25 19:16 53.06223 -33.51027 33855 ft 504 kts 95°
2026-04-25 19:16 53.06072 -33.39378 33871 ft 504 kts 95°
2026-04-25 19:17 53.05908 -33.27713 33889 ft 505 kts 94°
2026-04-25 19:17 53.05734 -33.16035 33876 ft 505 kts 94°
2026-04-25 19:18 53.05548 -33.04360 33891 ft 506 kts 95°
2026-04-25 19:18 53.05356 -32.92949 33896 ft 505 kts 95°
2026-04-25 19:19 53.05148 -32.81280 33886 ft 505 kts 95°
2026-04-25 19:19 53.04928 -32.69607 33893 ft 505 kts 95°
2026-04-25 19:20 53.04697 -32.57960 33896 ft 505 kts 95°
2026-04-25 19:20 53.04454 -32.46301 33908 ft 505 kts 95°
2026-04-25 19:21 53.04200 -32.34626 33914 ft 506 kts 95°
2026-04-25 19:21 53.03796 -32.17094 33911 ft 506 kts 95°
2026-04-25 19:22 53.03513 -32.05400 33907 ft 507 kts 95°
2026-04-25 19:23 53.03073 -31.88092 33914 ft 507 kts 95°
2026-04-25 19:23 53.02600 -31.70549 33911 ft 507 kts 95°
2026-04-25 19:24 53.02271 -31.58857 33923 ft 507 kts 95°
2026-04-25 19:25 53.01578 -31.35457 33936 ft 507 kts 95°
2026-04-25 19:25 53.01216 -31.23837 33932 ft 507 kts 95°
2026-04-25 19:26 53.00842 -31.12155 33930 ft 507 kts 95°
2026-04-25 19:26 53.00456 -31.00487 33940 ft 506 kts 96°
2026-04-25 19:27 53.00202 -30.93001 33948 ft 506 kts 96°
2026-04-25 19:27 52.99661 -30.77482 33944 ft 506 kts 96°
2026-04-25 19:28 52.99242 -30.65831 33952 ft 506 kts 96°
2026-04-25 19:28 52.98811 -30.54180 33953 ft 506 kts 96°
2026-04-25 19:29 52.98366 -30.42461 33953 ft 506 kts 96°
2026-04-25 19:29 52.97915 -30.30884 33959 ft 506 kts 96°
2026-04-25 19:30 52.97450 -30.19231 33956 ft 507 kts 96°
2026-04-25 19:30 52.96975 -30.07565 33967 ft 508 kts 96°
2026-04-25 19:31 52.96729 -29.96115 33953 ft 510 kts 89°
2026-04-25 19:31 52.97212 -29.84359 33971 ft 512 kts 88°
2026-04-25 19:32 52.97747 -29.72577 33968 ft 512 kts 88°
2026-04-25 19:32 52.98082 -29.64697 33972 ft 513 kts 88°
2026-04-25 19:33 52.98698 -29.48926 33976 ft 515 kts 88°
2026-04-25 19:33 52.99137 -29.37050 33975 ft 516 kts 88°
2026-04-25 19:34 52.99566 -29.25153 33974 ft 517 kts 88°
2026-04-25 19:34 52.99985 -29.13228 33975 ft 517 kts 88°
2026-04-25 19:35 53.00393 -29.01298 33974 ft 518 kts 88°
2026-04-25 19:35 53.00714 -28.91682 33983 ft 518 kts 88°
2026-04-25 19:36 53.01102 -28.79718 33962 ft 519 kts 88°
2026-04-25 19:36 53.01478 -28.67754 33977 ft 519 kts 89°
2026-04-25 19:37 53.01841 -28.55776 33991 ft 519 kts 89°
2026-04-25 19:37 53.02193 -28.43780 33982 ft 520 kts 88°
2026-04-25 19:38 53.02534 -28.31763 33990 ft 521 kts 88°
2026-04-25 19:38 53.02863 -28.19741 33989 ft 521 kts 89°
2026-04-25 19:39 53.03180 -28.07702 33988 ft 522 kts 89°
2026-04-25 19:39 53.03478 -27.95940 33987 ft 522 kts 88°
2026-04-25 19:40 53.03772 -27.83874 33989 ft 523 kts 88°
2026-04-25 19:40 53.04053 -27.71812 33987 ft 523 kts 89°
2026-04-25 19:41 53.04323 -27.59747 33991 ft 523 kts 89°
2026-04-25 19:41 53.04537 -27.49695 33988 ft 522 kts 89°
2026-04-25 19:42 53.04824 -27.35602 33999 ft 523 kts 89°
2026-04-25 19:42 53.05055 -27.23604 33997 ft 523 kts 89°
2026-04-25 19:43 53.05275 -27.11533 33997 ft 523 kts 89°
2026-04-25 19:43 53.05480 -26.99666 33998 ft 523 kts 89°
2026-04-25 19:44 53.05676 -26.87627 34000 ft 523 kts 89°
2026-04-25 19:44 53.05859 -26.75558 34000 ft 523 kts 89°
2026-04-25 19:45 53.06031 -26.63470 34005 ft 523 kts 89°
2026-04-25 19:45 53.06191 -26.51383 34006 ft 523 kts 89°
2026-04-25 19:46 53.06338 -26.39302 34003 ft 523 kts 90°
2026-04-25 19:46 53.06473 -26.27219 34005 ft 523 kts 89°
2026-04-25 19:47 53.06596 -26.15125 34005 ft 523 kts 90°
2026-04-25 19:47 53.06707 -26.03025 34003 ft 523 kts 90°
2026-04-25 19:48 53.06803 -25.91239 34003 ft 524 kts 90°
2026-04-25 19:48 53.06889 -25.79123 34008 ft 524 kts 90°
2026-04-25 19:49 53.06952 -25.68976 34013 ft 524 kts 90°
2026-04-25 19:49 53.07025 -25.54884 34014 ft 525 kts 90°
2026-04-25 19:50 53.07095 -25.36691 34016 ft 525 kts 90°
2026-04-25 19:51 53.07127 -25.24550 34010 ft 525 kts 90°
2026-04-25 19:51 53.07145 -25.12430 34014 ft 524 kts 90°
2026-04-25 19:52 53.07151 -25.00311 34019 ft 524 kts 90°
2026-04-25 19:52 53.07146 -24.88512 34019 ft 524 kts 90°
2026-04-25 19:53 53.07129 -24.76406 34016 ft 523 kts 90°
2026-04-25 19:53 53.07098 -24.64305 34020 ft 523 kts 91°
2026-04-25 19:54 53.07056 -24.52210 34022 ft 523 kts 90°
2026-04-25 19:54 53.07001 -24.40104 34018 ft 524 kts 91°
2026-04-25 19:55 53.06936 -24.28333 34019 ft 524 kts 91°
2026-04-25 19:55 53.06857 -24.16223 34025 ft 523 kts 91°
2026-04-25 19:56 53.06766 -24.04123 34043 ft 523 kts 91°
2026-04-25 19:56 53.06666 -23.92322 34022 ft 522 kts 91°
2026-04-25 19:57 53.06551 -23.80254 34020 ft 522 kts 91°
2026-04-25 19:57 53.06424 -23.68210 34030 ft 521 kts 91°
2026-04-25 19:58 53.06285 -23.56175 34030 ft 520 kts 91°
2026-04-25 19:58 53.06134 -23.44162 34033 ft 520 kts 92°
2026-04-25 19:59 53.05971 -23.32142 34031 ft 519 kts 92°
2026-04-25 19:59 53.05796 -23.20148 34036 ft 519 kts 92°
2026-04-25 20:00 53.05609 -23.08141 34037 ft 519 kts 92°
2026-04-25 20:00 53.05414 -22.96405 34042 ft 519 kts 92°
2026-04-25 20:01 53.05094 -22.78442 34022 ft 518 kts 92°
2026-04-25 20:01 53.04865 -22.66473 34043 ft 517 kts 92°
2026-04-25 20:02 53.04625 -22.54537 34036 ft 516 kts 93°
2026-04-25 20:02 53.04374 -22.42619 34039 ft 516 kts 93°
2026-04-25 20:03 53.04112 -22.30710 34047 ft 516 kts 94°
2026-04-25 20:03 53.03837 -22.18804 34051 ft 516 kts 94°
2026-04-25 20:04 53.03549 -22.06906 34053 ft 516 kts 94°
2026-04-25 20:04 53.03258 -21.95291 34053 ft 516 kts 94°
2026-04-25 20:05 53.02948 -21.83381 34051 ft 516 kts 94°
2026-04-25 20:05 53.02626 -21.71465 34059 ft 516 kts 94°
2026-04-25 20:06 53.02291 -21.59563 34043 ft 516 kts 94°
2026-04-25 20:06 53.01944 -21.47660 34047 ft 515 kts 94°
2026-04-25 20:07 53.01587 -21.35790 34061 ft 514 kts 94°
2026-04-25 20:07 53.01219 -21.23938 34058 ft 513 kts 95°
2026-04-25 20:08 53.00840 -21.12114 34072 ft 513 kts 95°
2026-04-25 20:08 53.00449 -21.00287 34072 ft 513 kts 95°
2026-04-25 20:09 53.00054 -20.88707 34076 ft 513 kts 95°
2026-04-25 20:09 52.99640 -20.76889 34068 ft 513 kts 95°
2026-04-25 20:10 52.99214 -20.65080 34083 ft 513 kts 95°
2026-04-25 20:10 52.98780 -20.53344 34075 ft 513 kts 95°
2026-04-25 20:11 52.98330 -20.41529 34073 ft 513 kts 95°
2026-04-25 20:11 52.97870 -20.29739 34072 ft 511 kts 95°
2026-04-25 20:12 52.97400 -20.17981 34085 ft 510 kts 95°
2026-04-25 20:12 52.97081 -20.10129 34086 ft 509 kts 95°
2026-04-25 20:13 52.96685 -19.94807 34090 ft 508 kts 90°
2026-04-25 20:13 52.96934 -19.83129 34091 ft 507 kts 89°
2026-04-25 20:14 52.97207 -19.71440 34092 ft 506 kts 89°
2026-04-25 20:14 52.97440 -19.59774 34095 ft 506 kts 90°
2026-04-25 20:15 52.97642 -19.48106 34093 ft 506 kts 90°
2026-04-25 20:15 52.97827 -19.36448 34095 ft 505 kts 90°
2026-04-25 20:16 52.98002 -19.24797 34097 ft 505 kts 90°
2026-04-25 20:16 52.98167 -19.13130 34099 ft 506 kts 90°
2026-04-25 20:17 52.98321 -19.01487 34103 ft 504 kts 90°
2026-04-25 20:17 52.98461 -18.90102 34103 ft 503 kts 90°
2026-04-25 20:18 52.98591 -18.78502 34097 ft 501 kts 90°
2026-04-25 20:18 52.98710 -18.66955 34106 ft 500 kts 90°
2026-04-25 20:19 52.98818 -18.55430 34106 ft 499 kts 91°
2026-04-25 20:19 53.00018 -18.44090 34112 ft 508 kts 74°
2026-04-25 20:20 53.01289 -18.34592 34102 ft 507 kts 91°
2026-04-25 20:20 53.00385 -18.23056 34113 ft 505 kts 103°
2026-04-25 20:21 52.99353 -18.11519 34121 ft 507 kts 97°
2026-04-25 20:21 52.99057 -17.99870 34112 ft 508 kts 92°
2026-04-25 20:22 52.99105 -17.90301 34119 ft 508 kts 91°
2026-04-25 20:22 52.99233 -17.76590 34121 ft 508 kts 92°
2026-04-25 20:23 52.99285 -17.64873 34125 ft 508 kts 92°
2026-04-25 20:23 52.99296 -17.53269 34122 ft 507 kts 92°
2026-04-25 20:24 52.99288 -17.41437 34137 ft 508 kts 93°
2026-04-25 20:24 52.99271 -17.29717 34138 ft 509 kts 93°
2026-04-25 20:25 52.99245 -17.18040 34119 ft 510 kts 94°
2026-04-25 20:25 52.99208 -17.06271 34140 ft 510 kts 94°
2026-04-25 20:26 52.99160 -16.94777 34121 ft 511 kts 94°
2026-04-25 20:26 52.99099 -16.82982 34143 ft 511 kts 94°
2026-04-25 20:27 52.99027 -16.71190 34142 ft 511 kts 94°
2026-04-25 20:27 52.98943 -16.59387 34143 ft 511 kts 94°
2026-04-25 20:28 52.98848 -16.47590 34147 ft 511 kts 95°
2026-04-25 20:28 52.98741 -16.35803 34144 ft 511 kts 95°
2026-04-25 20:29 52.98622 -16.24021 34154 ft 510 kts 95°
2026-04-25 20:29 52.98491 -16.12248 34154 ft 510 kts 95°
2026-04-25 20:30 52.98349 -16.00484 34160 ft 510 kts 95°
2026-04-25 20:30 52.98200 -15.89008 34161 ft 510 kts 95°
2026-04-25 20:31 52.98035 -15.77258 34164 ft 510 kts 95°
2026-04-25 20:31 52.97859 -15.65520 34163 ft 509 kts 95°
2026-04-25 20:32 52.97671 -15.53759 34164 ft 509 kts 95°
2026-04-25 20:32 52.97472 -15.42027 34158 ft 508 kts 95°
2026-04-25 20:33 52.98210 -15.30448 34173 ft 514 kts 71°
2026-04-25 20:33 53.00166 -15.21165 34155 ft 512 kts 83°
2026-04-25 20:34 53.00503 -15.13348 34181 ft 505 kts 96°
2026-04-25 20:34 53.00290 -15.07525 34180 ft 505 kts 98°
2026-04-25 20:34 52.99912 -14.96091 34181 ft 509 kts 95°
2026-04-25 20:35 52.99943 -14.84286 34156 ft 512 kts 92°
2026-04-25 20:35 53.00059 -14.72476 34175 ft 512 kts 93°
2026-04-25 20:36 53.00107 -14.60660 34183 ft 511 kts 94°
2026-04-25 20:36 53.00109 -14.48865 34180 ft 511 kts 94°
2026-04-25 20:37 53.00097 -14.37087 34176 ft 510 kts 94°
2026-04-25 20:37 53.00078 -14.25337 34177 ft 509 kts 94°
2026-04-25 20:38 53.00049 -14.13602 34184 ft 508 kts 94°
2026-04-25 20:38 53.00001 -14.01962 34197 ft 507 kts 95°
2026-04-25 20:39 52.99325 -13.90645 34206 ft 503 kts 102°
2026-04-25 20:39 52.98470 -13.81017 34175 ft 503 kts 102°
2026-04-25 20:40 52.97274 -13.67675 34202 ft 503 kts 102°
2026-04-25 20:40 52.96266 -13.56177 34191 ft 504 kts 102°
2026-04-25 20:41 52.95264 -13.44693 34197 ft 503 kts 102°
2026-04-25 20:41 52.94254 -13.33214 34202 ft 503 kts 102°
2026-04-25 20:42 52.93230 -13.21741 34190 ft 503 kts 102°
2026-04-25 20:42 52.92194 -13.10278 34232 ft 505 kts 102°
2026-04-25 20:43 52.91668 -13.04519 34480 ft 506 kts 102°
2026-04-25 20:43 52.91162 -12.98995 34866 ft 504 kts 102°
2026-04-25 20:43 52.90636 -12.93271 35296 ft 501 kts 102°
2026-04-25 20:43 52.90111 -12.87584 35698 ft 499 kts 102°
2026-04-25 20:44 52.89582 -12.81906 36044 ft 498 kts 102°
2026-04-25 20:44 52.89050 -12.76229 36158 ft 501 kts 102°
2026-04-25 20:44 52.87971 -12.64810 36208 ft 501 kts 102°
2026-04-25 20:45 52.86888 -12.53441 36206 ft 499 kts 102°
2026-04-25 20:45 52.85799 -12.42132 36210 ft 497 kts 102°
2026-04-25 20:46 52.84701 -12.30859 36211 ft 496 kts 102°
2026-04-25 20:46 52.83593 -12.19595 36210 ft 496 kts 102°
2026-04-25 20:47 52.82472 -12.08320 36209 ft 497 kts 102°
2026-04-25 20:47 52.81370 -11.97339 36213 ft 498 kts 102°
2026-04-25 20:48 52.80223 -11.86023 36217 ft 500 kts 103°
2026-04-25 20:48 52.79063 -11.74686 36216 ft 501 kts 103°
2026-04-25 20:49 52.77890 -11.63336 36206 ft 502 kts 103°
2026-04-25 20:49 52.76705 -11.51980 36215 ft 502 kts 103°
2026-04-25 20:50 52.75508 -11.40620 36215 ft 502 kts 103°
2026-04-25 20:50 52.74300 -11.29260 36215 ft 503 kts 103°
2026-04-25 20:51 52.73080 -11.17901 36218 ft 502 kts 103°
2026-04-25 20:51 52.71852 -11.06570 36205 ft 502 kts 103°
2026-04-25 20:52 52.70850 -10.97406 36217 ft 502 kts 103°
2026-04-25 20:52 52.69391 -10.84178 36224 ft 501 kts 103°
2026-04-25 20:53 52.68132 -10.72873 36223 ft 502 kts 103°
2026-04-25 20:53 52.66870 -10.61651 36223 ft 502 kts 103°
2026-04-25 20:54 52.65580 -10.50281 36223 ft 501 kts 103°
2026-04-25 20:54 52.64287 -10.38994 36223 ft 501 kts 103°
2026-04-25 20:55 52.62985 -10.27717 36223 ft 501 kts 103°
2026-04-25 20:55 52.61681 -10.16525 36226 ft 501 kts 104°
2026-04-25 20:56 52.60358 -10.05266 36221 ft 501 kts 103°
2026-04-25 20:56 52.59050 -9.94239 36209 ft 501 kts 103°
2026-04-25 20:57 52.57706 -9.82997 36222 ft 501 kts 104°
2026-04-25 20:57 52.56351 -9.71753 36226 ft 501 kts 104°
2026-04-25 20:58 52.54985 -9.60519 36229 ft 502 kts 104°
2026-04-25 20:58 52.53606 -9.49277 36216 ft 502 kts 104°
2026-04-25 20:59 52.52217 -9.38037 36228 ft 502 kts 104°
2026-04-25 20:59 52.50813 -9.26779 36223 ft 503 kts 104°
2026-04-25 21:00 52.49870 -9.19267 36220 ft 503 kts 104°
2026-04-25 21:01 52.47289 -8.98913 36221 ft 503 kts 104°
2026-04-25 21:01 52.45850 -8.87690 36223 ft 503 kts 104°
2026-04-25 21:02 52.44398 -8.76454 36203 ft 503 kts 104°
2026-04-25 21:02 52.42938 -8.65249 36209 ft 503 kts 104°
2026-04-25 21:03 52.41467 -8.54052 36207 ft 503 kts 104°
2026-04-25 21:03 52.39985 -8.42856 36199 ft 503 kts 104°
2026-04-25 21:04 52.38491 -8.31657 36202 ft 503 kts 104°
2026-04-25 21:04 52.37241 -8.22357 36209 ft 504 kts 104°
2026-04-25 21:05 52.35727 -8.11162 36208 ft 504 kts 104°
2026-04-25 21:05 52.34202 -7.99979 36202 ft 504 kts 104°
2026-04-25 21:06 52.32701 -7.89051 36206 ft 504 kts 104°
2026-04-25 21:06 52.31142 -7.77792 36214 ft 505 kts 104°
2026-04-25 21:07 52.29594 -7.66685 36213 ft 505 kts 105°
2026-04-25 21:07 52.28025 -7.55517 36193 ft 505 kts 105°
2026-04-25 21:08 52.26444 -7.44352 36214 ft 505 kts 105°
2026-04-25 21:08 52.24855 -7.33205 36208 ft 505 kts 105°
2026-04-25 21:09 52.22445 -7.16454 36213 ft 505 kts 105°
2026-04-25 21:09 52.20826 -7.05298 36213 ft 506 kts 105°
2026-04-25 21:10 52.19234 -6.94410 36210 ft 506 kts 105°
2026-04-25 21:10 52.17592 -6.83260 36216 ft 506 kts 105°
2026-04-25 21:11 52.15940 -6.72121 36211 ft 506 kts 105°
2026-04-25 21:11 52.14281 -6.61013 36214 ft 505 kts 105°
2026-04-25 21:12 52.12610 -6.49903 36215 ft 505 kts 105°
2026-04-25 21:12 52.11215 -6.40688 36218 ft 505 kts 105°
2026-04-25 21:13 52.09239 -6.27724 36217 ft 505 kts 105°
2026-04-25 21:13 52.07538 -6.16638 36222 ft 505 kts 105°
2026-04-25 21:14 52.05828 -6.05564 36220 ft 506 kts 105°
2026-04-25 21:14 52.04058 -5.94754 36220 ft 506 kts 107°
2026-04-25 21:15 52.02140 -5.83746 36229 ft 506 kts 107°
2026-04-25 21:15 52.00224 -5.72763 36224 ft 506 kts 107°
2026-04-25 21:16 51.98319 -5.61793 36225 ft 505 kts 107°
2026-04-25 21:16 51.96410 -5.50843 36225 ft 504 kts 107°
2026-04-25 21:17 51.94494 -5.39924 36222 ft 504 kts 107°
2026-04-25 21:17 51.92567 -5.29008 36209 ft 504 kts 107°
2026-04-25 21:18 51.90840 -5.18008 36223 ft 505 kts 102°
2026-04-25 21:18 51.89550 -5.06840 36219 ft 506 kts 101°
2026-04-25 21:19 51.88297 -4.95863 36228 ft 507 kts 101°
2026-04-25 21:19 51.86978 -4.84659 36222 ft 507 kts 102°
2026-04-25 21:20 51.85861 -4.75352 36221 ft 507 kts 102°
2026-04-25 21:20 51.84273 -4.62267 36222 ft 507 kts 102°
2026-04-25 21:21 51.82901 -4.51049 36219 ft 506 kts 102°
2026-04-25 21:21 51.81532 -4.39940 36235 ft 506 kts 102°
2026-04-25 21:22 51.80150 -4.28815 36232 ft 505 kts 102°
2026-04-25 21:22 51.78759 -4.17706 36223 ft 504 kts 102°
2026-04-25 21:23 51.77358 -4.06609 36219 ft 504 kts 102°
2026-04-25 21:23 51.75978 -3.95757 36229 ft 504 kts 102°
2026-04-25 21:24 51.74562 -3.84684 36210 ft 504 kts 102°
2026-04-25 21:24 51.73161 -3.73614 36214 ft 504 kts 102°
2026-04-25 21:25 51.71751 -3.62539 36223 ft 504 kts 102°
2026-04-25 21:25 51.70602 -3.51398 36225 ft 504 kts 96°
2026-04-25 21:26 51.69969 -3.40133 36243 ft 505 kts 95°
2026-04-25 21:26 51.69350 -3.28859 36260 ft 505 kts 95°
2026-04-25 21:27 51.68689 -3.17647 36272 ft 505 kts 96°
2026-04-25 21:27 51.67991 -3.06306 36292 ft 505 kts 96°
2026-04-25 21:28 51.67310 -2.95429 36292 ft 505 kts 96°
2026-04-25 21:28 51.66592 -2.84092 36298 ft 505 kts 96°
2026-04-25 21:29 51.65870 -2.72851 36227 ft 504 kts 96°
2026-04-25 21:29 51.65137 -2.61620 36222 ft 504 kts 96°
2026-04-25 21:30 51.64397 -2.50411 36227 ft 503 kts 96°
2026-04-25 21:30 51.63774 -2.41110 36224 ft 503 kts 96°
2026-04-25 21:31 51.62893 -2.28035 36223 ft 503 kts 96°
2026-04-25 21:31 51.62134 -2.16867 36215 ft 502 kts 96°
2026-04-25 21:32 51.61365 -2.05709 36222 ft 502 kts 96°
2026-04-25 21:32 51.60596 -1.94729 36227 ft 501 kts 96°
2026-04-25 21:33 51.59806 -1.83602 36215 ft 501 kts 96°
2026-04-25 21:33 51.59012 -1.72541 36211 ft 501 kts 96°
2026-04-25 21:34 51.58087 -1.61449 36212 ft 500 kts 99°
2026-04-25 21:34 51.56786 -1.50463 36231 ft 501 kts 101°
2026-04-25 21:35 51.55458 -1.39491 36218 ft 501 kts 100°
2026-04-25 21:35 51.54157 -1.28496 36214 ft 501 kts 100°
2026-04-25 21:36 51.53367 -1.17418 36212 ft 499 kts 88°
2026-04-25 21:36 51.54152 -1.06393 36215 ft 497 kts 75°
2026-04-25 21:37 51.55290 -0.99357 36216 ft 497 kts 73°
2026-04-25 21:37 51.57694 -0.85083 36236 ft 498 kts 73°
2026-04-25 21:38 51.59435 -0.74309 36234 ft 498 kts 74°
2026-04-25 21:38 51.61138 -0.63517 36240 ft 498 kts 74°
2026-04-25 21:39 51.62831 -0.52710 36240 ft 498 kts 75°
2026-04-25 21:39 51.64517 -0.41894 36241 ft 498 kts 75°
2026-04-25 21:40 51.66197 -0.31062 36294 ft 498 kts 75°
2026-04-25 21:40 51.67878 -0.20221 36293 ft 498 kts 74°
2026-04-25 21:41 51.69683 -0.09441 36289 ft 498 kts 74°
2026-04-25 21:41 51.71284 0.00774 36242 ft 499 kts 75°
2026-04-25 21:42 51.72944 0.11617 36255 ft 498 kts 75°
2026-04-25 21:42 51.74608 0.22457 36260 ft 497 kts 75°
2026-04-25 21:43 51.76267 0.33270 36262 ft 496 kts 75°
2026-04-25 21:43 51.77916 0.44089 36261 ft 496 kts 75°
2026-04-25 21:44 51.79553 0.54904 36263 ft 496 kts 75°
2026-04-25 21:45 51.82005 0.71131 36255 ft 495 kts 75°
2026-04-25 21:45 51.83669 0.81938 36252 ft 495 kts 75°
2026-04-25 21:46 51.85516 0.92571 36256 ft 494 kts 72°
2026-04-25 21:46 51.87472 1.02982 36271 ft 493 kts 72°
2026-04-25 21:47 51.89431 1.13616 36264 ft 492 kts 72°
2026-04-25 21:47 51.91341 1.24248 36266 ft 492 kts 73°
2026-04-25 21:48 51.92929 1.33169 36268 ft 491 kts 73°
2026-04-25 21:48 51.94814 1.43803 36272 ft 491 kts 73°
2026-04-25 21:49 51.96677 1.54368 36275 ft 491 kts 73°
2026-04-25 21:49 51.98545 1.65012 36273 ft 490 kts 73°
2026-04-25 21:50 52.00339 1.75716 36277 ft 490 kts 75°
2026-04-25 21:50 52.01987 1.86419 36278 ft 490 kts 75°
2026-04-25 21:51 52.03629 1.97163 36287 ft 490 kts 75°
2026-04-25 21:51 52.05254 2.07714 36277 ft 490 kts 75°
2026-04-25 21:52 52.06902 2.18446 36278 ft 489 kts 75°
2026-04-25 21:52 52.08539 2.29183 36398 ft 492 kts 75°
2026-04-25 21:52 52.09361 2.34599 36716 ft 492 kts 75°
2026-04-25 21:53 52.10176 2.39989 37106 ft 490 kts 75°
2026-04-25 21:53 52.10986 2.45363 37310 ft 491 kts 75°
2026-04-25 21:53 52.11840 2.50751 37275 ft 491 kts 73°
2026-04-25 21:54 52.13815 2.61295 37269 ft 484 kts 71°
2026-04-25 21:54 52.15837 2.71725 37285 ft 482 kts 71°
2026-04-25 21:55 52.17819 2.82153 37281 ft 482 kts 72°
2026-04-25 21:55 52.19775 2.92610 37281 ft 482 kts 72°
2026-04-25 21:56 52.21680 3.02857 37281 ft 482 kts 72°
2026-04-25 21:56 52.23622 3.13338 37276 ft 483 kts 72°
2026-04-25 21:57 52.25111 3.24013 37285 ft 484 kts 82°
2026-04-25 21:57 52.25357 3.34983 37281 ft 485 kts 91°
2026-04-25 21:58 52.24973 3.45970 37278 ft 485 kts 92°
2026-04-25 21:58 52.24548 3.56949 37270 ft 485 kts 92°
2026-04-25 21:59 52.24148 3.67923 37271 ft 484 kts 92°
2026-04-25 21:59 52.23759 3.78900 37270 ft 484 kts 92°
2026-04-25 22:00 52.23169 3.95275 37280 ft 484 kts 92°
2026-04-25 22:00 52.22771 4.05951 37279 ft 484 kts 92°
2026-04-25 22:01 52.22352 4.16899 37269 ft 484 kts 92°
2026-04-25 22:01 52.21995 4.26001 37266 ft 483 kts 92°
2026-04-25 22:02 52.21483 4.38782 37258 ft 483 kts 92°
2026-04-25 22:02 52.21033 4.49712 37260 ft 483 kts 93°
2026-04-25 22:03 52.20574 4.60647 37249 ft 483 kts 92°
2026-04-25 22:03 52.20104 4.71574 37263 ft 483 kts 93°
2026-04-25 22:04 52.19623 4.82542 37264 ft 483 kts 93°
2026-04-25 22:04 52.19135 4.93428 37266 ft 483 kts 93°
2026-04-25 22:05 52.18644 5.04155 37255 ft 483 kts 93°
2026-04-25 22:05 52.18134 5.15072 37254 ft 484 kts 93°
2026-04-25 22:06 52.17613 5.26003 37250 ft 484 kts 93°
2026-04-25 22:06 52.16900 5.36840 37251 ft 484 kts 96°
2026-04-25 22:07 52.16120 5.45941 37249 ft 485 kts 97°
2026-04-25 22:07 52.15027 5.58593 37241 ft 485 kts 97°
2026-04-25 22:08 52.14119 5.69481 37241 ft 486 kts 96°
2026-04-25 22:08 52.13218 5.80376 37240 ft 486 kts 96°
2026-04-25 22:09 52.12303 5.91352 37241 ft 486 kts 96°
2026-04-25 22:09 52.11397 6.02075 37239 ft 487 kts 96°
2026-04-25 22:10 52.10462 6.13008 37238 ft 488 kts 97°
2026-04-25 22:10 52.09515 6.23943 37236 ft 488 kts 97°
2026-04-25 22:11 52.08559 6.34871 37231 ft 489 kts 97°
2026-04-25 22:11 52.07590 6.45818 37226 ft 489 kts 96°
2026-04-25 22:12 52.06616 6.56701 37230 ft 490 kts 96°
2026-04-25 22:12 52.05787 6.65883 37224 ft 490 kts 96°
2026-04-25 22:13 52.04626 6.78606 37230 ft 491 kts 97°
2026-04-25 22:13 52.03613 6.89566 37232 ft 491 kts 96°
2026-04-25 22:14 52.02613 7.00294 37224 ft 491 kts 97°
2026-04-25 22:14 52.01582 7.11226 37222 ft 492 kts 97°
2026-04-25 22:15 52.00537 7.22203 37223 ft 492 kts 97°
2026-04-25 22:16 51.98950 7.38652 37224 ft 493 kts 97°
2026-04-25 22:16 51.97877 7.49639 37210 ft 493 kts 97°
2026-04-25 22:17 51.96792 7.60638 37211 ft 494 kts 97°
2026-04-25 22:17 51.95697 7.71629 37207 ft 495 kts 97°
2026-04-25 22:18 51.94588 7.82653 37208 ft 495 kts 97°
2026-04-25 22:18 51.93468 7.93676 37208 ft 496 kts 97°
2026-04-25 22:19 51.92362 8.04468 37204 ft 497 kts 97°
2026-04-25 22:19 51.91218 8.15515 37206 ft 497 kts 97°
2026-04-25 22:20 51.90062 8.26570 36933 ft 500 kts 97°
2026-04-25 22:20 51.89481 8.32099 36397 ft 498 kts 97°
2026-04-25 22:20 51.88897 8.37608 35883 ft 493 kts 97°
2026-04-25 22:20 51.88318 8.43038 35376 ft 487 kts 97°
2026-04-25 22:21 51.87744 8.48411 34891 ft 483 kts 97°
2026-04-25 22:21 51.87172 8.53739 34408 ft 478 kts 97°
2026-04-25 22:21 51.86603 8.59025 33888 ft 474 kts 97°
2026-04-25 22:21 51.86037 8.64252 33345 ft 471 kts 97°
2026-04-25 22:22 51.85473 8.69446 32810 ft 467 kts 97°
2026-04-25 22:22 51.84910 8.74602 32291 ft 464 kts 97°
2026-04-25 22:22 51.84350 8.79717 31777 ft 461 kts 97°
2026-04-25 22:22 51.83791 8.84798 31289 ft 458 kts 97°
2026-04-25 22:23 51.83231 8.89862 30784 ft 456 kts 97°
2026-04-25 22:23 51.82675 8.94884 30302 ft 453 kts 97°
2026-04-25 22:23 51.82118 8.99885 29742 ft 451 kts 97°
2026-04-25 22:23 51.81580 9.04690 29210 ft 449 kts 97°
2026-04-25 22:24 51.81023 9.09657 28435 ft 451 kts 97°
2026-04-25 22:24 51.80457 9.14705 27376 ft 461 kts 97°
2026-04-25 22:24 51.79882 9.19800 26780 ft 460 kts 97°
2026-04-25 22:24 51.79306 9.24850 26378 ft 453 kts 97°
2026-04-25 22:25 51.78738 9.29805 26076 ft 445 kts 97°
2026-04-25 22:25 51.78179 9.34669 25771 ft 437 kts 97°
2026-04-25 22:25 51.77628 9.39454 25389 ft 432 kts 97°
2026-04-25 22:25 51.77079 9.44209 24919 ft 430 kts 97°
2026-04-25 22:26 51.76531 9.48942 24453 ft 428 kts 97°
2026-04-25 22:26 51.75984 9.53659 23990 ft 427 kts 98°
2026-04-25 22:26 51.75435 9.58365 23483 ft 425 kts 98°
2026-04-25 22:26 51.74889 9.63033 22951 ft 424 kts 98°
2026-04-25 22:27 51.74341 9.67698 22415 ft 422 kts 97°
2026-04-25 22:27 51.73793 9.72338 21912 ft 420 kts 97°
2026-04-25 22:27 51.73244 9.76965 21410 ft 418 kts 97°
2026-04-25 22:27 51.72701 9.81522 21201 ft 411 kts 97°
2026-04-25 22:28 51.72158 9.86085 21186 ft 416 kts 97°
2026-04-25 22:28 51.71612 9.90666 21174 ft 414 kts 97°
2026-04-25 22:28 51.71069 9.95189 21159 ft 410 kts 97°
2026-04-25 22:28 51.70525 9.99696 21160 ft 408 kts 97°
2026-04-25 22:29 51.70004 10.04010 21169 ft 409 kts 97°
2026-04-25 22:29 51.69457 10.08525 21169 ft 410 kts 97°
2026-04-25 22:29 51.68910 10.13028 21162 ft 410 kts 97°
2026-04-25 22:30 51.67824 10.21878 21169 ft 398 kts 97°
2026-04-25 22:30 51.67286 10.26255 21170 ft 399 kts 97°
2026-04-25 22:30 51.66745 10.30657 21163 ft 400 kts 97°
2026-04-25 22:30 51.66570 10.32078 21166 ft 401 kts 97°
2026-04-25 22:31 51.65655 10.39470 21165 ft 402 kts 97°
2026-04-25 22:31 51.65105 10.43889 21161 ft 403 kts 97°
2026-04-25 22:31 51.64738 10.46819 21159 ft 403 kts 97°
2026-04-25 22:31 51.64184 10.51242 21159 ft 403 kts 97°
2026-04-25 22:32 51.63630 10.55658 21149 ft 403 kts 97°
2026-04-25 22:32 51.63073 10.60080 21153 ft 402 kts 97°
2026-04-25 22:32 51.62516 10.64482 21146 ft 402 kts 97°
2026-04-25 22:32 51.61957 10.68880 21140 ft 402 kts 97°
2026-04-25 22:33 51.61393 10.73329 20788 ft 408 kts 97°
2026-04-25 22:33 51.60824 10.77810 20282 ft 410 kts 97°
2026-04-25 22:33 51.60247 10.82311 19797 ft 409 kts 97°
2026-04-25 22:33 51.59671 10.86773 19322 ft 408 kts 97°
2026-04-25 22:34 51.59097 10.91202 18808 ft 395 kts 97°
2026-04-25 22:34 51.58546 10.95432 18311 ft 384 kts 97°
2026-04-25 22:34 51.58001 10.99641 17804 ft 385 kts 97°
2026-04-25 22:34 51.57474 11.03716 17340 ft 386 kts 97°
2026-04-25 22:35 51.56928 11.07908 17149 ft 384 kts 97°
2026-04-25 22:35 51.56379 11.12127 17147 ft 386 kts 97°
2026-04-25 22:35 51.55826 11.16338 17145 ft 385 kts 97°
2026-04-25 22:35 51.55272 11.20552 17134 ft 384 kts 97°
2026-04-25 22:36 51.54720 11.24737 17132 ft 383 kts 97°
2026-04-25 22:36 51.54167 11.28915 17124 ft 383 kts 97°
2026-04-25 22:36 51.53612 11.33094 17136 ft 382 kts 97°
2026-04-25 22:36 51.53056 11.37263 17130 ft 382 kts 97°
2026-04-25 22:37 51.52501 11.41438 17120 ft 383 kts 97°
2026-04-25 22:37 51.51938 11.45657 16780 ft 390 kts 97°
2026-04-25 22:37 51.51367 11.49922 16276 ft 392 kts 97°
2026-04-25 22:37 51.51108 11.54182 15733 ft 377 kts 79°
2026-04-25 22:38 51.51720 11.58154 15262 ft 361 kts 59°
2026-04-25 22:38 51.53013 11.61510 14784 ft 347 kts 42°
2026-04-25 22:38 51.54762 11.64055 14320 ft 333 kts 26°
2026-04-25 22:38 51.56782 11.65697 13844 ft 321 kts 11°
2026-04-25 22:39 51.58926 11.66400 13331 ft 310 kts 357°
2026-04-25 22:39 51.60968 11.66207 12778 ft 282 kts 343°
2026-04-25 22:39 51.62750 11.65253 12214 ft 260 kts 331°
2026-04-25 22:39 51.64262 11.63851 11701 ft 243 kts 325°
2026-04-25 22:40 51.65594 11.62323 11315 ft 226 kts 320°
2026-04-25 22:40 51.66856 11.60955 11140 ft 222 kts 340°
2026-04-25 22:40 51.68428 11.60693 11150 ft 236 kts 357°
2026-04-25 22:40 51.70041 11.61145 11147 ft 242 kts 10°
2026-04-25 22:41 51.71561 11.62359 11169 ft 249 kts 27°
2026-04-25 22:41 51.72772 11.64427 11149 ft 260 kts 48°
2026-04-25 22:41 51.73458 11.67203 11140 ft 277 kts 72°
2026-04-25 22:41 51.73422 11.70390 11159 ft 293 kts 99°
2026-04-25 22:42 51.72535 11.73399 11120 ft 306 kts 128°
2026-04-25 22:42 51.70913 11.75638 10863 ft 310 kts 155°
2026-04-25 22:42 51.68940 11.77009 10418 ft 306 kts 172°
2026-04-25 22:42 51.66889 11.77257 10177 ft 287 kts 191°
2026-04-25 22:43 51.64948 11.77009 10136 ft 277 kts 193°
2026-04-25 22:43 51.63027 11.76685 10136 ft 279 kts 194°
2026-04-25 22:43 51.61111 11.76348 10123 ft 277 kts 194°
2026-04-25 22:43 51.59200 11.76012 10117 ft 275 kts 194°
2026-04-25 22:44 51.57300 11.75677 10118 ft 274 kts 194°
2026-04-25 22:44 51.55397 11.75340 10080 ft 277 kts 194°
2026-04-25 22:44 51.53468 11.74989 9798 ft 281 kts 194°
2026-04-25 22:44 51.51520 11.74630 9446 ft 281 kts 194°
2026-04-25 22:45 51.49586 11.74275 9134 ft 277 kts 194°
2026-04-25 22:45 51.47700 11.73936 9143 ft 273 kts 194°
2026-04-25 22:45 51.45798 11.73589 9134 ft 276 kts 194°
2026-04-25 22:45 51.43906 11.73241 9108 ft 271 kts 194°
2026-04-25 22:46 51.42052 11.72903 9114 ft 267 kts 194°
2026-04-25 22:46 51.40197 11.72570 9131 ft 268 kts 194°
2026-04-25 22:46 51.38334 11.72231 9132 ft 270 kts 194°
2026-04-25 22:46 51.36464 11.71889 9134 ft 272 kts 194°
2026-04-25 22:47 51.34581 11.71542 9140 ft 273 kts 194°
2026-04-25 22:47 51.32695 11.71192 9136 ft 273 kts 194°
2026-04-25 22:47 51.30808 11.70840 9129 ft 273 kts 194°
2026-04-25 22:47 51.28923 11.70494 9124 ft 272 kts 194°
2026-04-25 22:48 51.27050 11.70152 9120 ft 270 kts 194°
2026-04-25 22:48 51.25186 11.69815 9119 ft 269 kts 194°
2026-04-25 22:48 51.23332 11.69482 9119 ft 268 kts 194°
2026-04-25 22:48 51.21483 11.69150 9115 ft 266 kts 194°
2026-04-25 22:49 51.19644 11.68813 9119 ft 266 kts 194°
2026-04-25 22:49 51.17829 11.68479 9123 ft 266 kts 194°
2026-04-25 22:49 51.15969 11.68138 9120 ft 265 kts 194°
2026-04-25 22:49 51.14139 11.67801 9139 ft 265 kts 194°
2026-04-25 22:50 51.12923 11.67577 9122 ft 266 kts 194°
2026-04-25 22:51 51.04898 11.66105 9140 ft 267 kts 194°
2026-04-25 22:51 51.03029 11.65764 9128 ft 268 kts 194°
2026-04-25 22:51 51.01165 11.65647 9113 ft 272 kts 176°
2026-04-25 22:51 50.99400 11.66784 9134 ft 281 kts 145°
2026-04-25 22:52 50.98124 11.69107 9135 ft 282 kts 114°
2026-04-25 22:52 50.97642 11.72083 9131 ft 285 kts 84°
2026-04-25 22:52 50.97985 11.75284 9156 ft 303 kts 68°
2026-04-25 22:52 50.98402 11.77404 9155 ft 305 kts 65°
2026-04-25 22:53 50.99316 11.81695 9127 ft 307 kts 65°
2026-04-25 22:53 51.00010 11.84891 9119 ft 306 kts 64°
2026-04-25 22:53 51.00706 11.88085 9161 ft 306 kts 64°
2026-04-25 22:53 51.01404 11.91286 9137 ft 307 kts 64°
2026-04-25 22:54 51.02103 11.94492 9134 ft 307 kts 64°
2026-04-25 22:54 51.02799 11.97701 9123 ft 308 kts 64°
2026-04-25 22:54 51.03473 12.00817 9122 ft 307 kts 64°
2026-04-25 22:54 51.04168 12.04029 9131 ft 308 kts 64°
2026-04-25 22:55 51.04866 12.07246 9128 ft 308 kts 64°
2026-04-25 22:55 51.05565 12.10469 9121 ft 309 kts 64°
2026-04-25 22:55 51.06264 12.13695 9113 ft 309 kts 64°
2026-04-25 22:55 51.06961 12.16913 9122 ft 308 kts 64°
2026-04-25 22:56 51.07826 12.19886 9113 ft 295 kts 50°
2026-04-25 22:56 51.09015 12.22585 9114 ft 293 kts 45°
2026-04-25 22:56 51.10250 12.25177 9113 ft 295 kts 45°
2026-04-25 22:56 51.11498 12.27773 9116 ft 296 kts 45°
2026-04-25 22:57 51.12758 12.30381 9116 ft 297 kts 44°
2026-04-25 22:57 51.14018 12.32986 9109 ft 296 kts 44°
2026-04-25 22:57 51.15262 12.35565 8939 ft 292 kts 45°
2026-04-25 22:57 51.16486 12.38118 8587 ft 289 kts 44°
2026-04-25 22:58 51.17699 12.40669 8161 ft 288 kts 44°
2026-04-25 22:58 51.18907 12.43211 7748 ft 288 kts 44°
2026-04-25 22:58 51.20095 12.45714 7379 ft 286 kts 44°
2026-04-25 22:58 51.21310 12.48275 6990 ft 285 kts 44°
2026-04-25 22:59 51.22483 12.50751 6637 ft 282 kts 44°
2026-04-25 22:59 51.23661 12.53245 6251 ft 281 kts 44°
2026-04-25 22:59 51.24834 12.55729 5836 ft 279 kts 45°
2026-04-25 22:59 51.25981 12.58223 5417 ft 278 kts 45°
2026-04-25 23:00 51.27142 12.60686 5046 ft 276 kts 45°
2026-04-25 23:00 51.28304 12.63131 5012 ft 277 kts 45°
2026-04-25 23:00 51.29471 12.65581 5008 ft 277 kts 44°
2026-04-25 23:00 51.30682 12.67936 5002 ft 272 kts 40°
2026-04-25 23:01 51.31921 12.70180 4913 ft 270 kts 40°
2026-04-25 23:01 51.33185 12.72441 4502 ft 274 kts 40°
2026-04-25 23:01 51.34455 12.74690 3993 ft 268 kts 40°
2026-04-25 23:01 51.35725 12.76761 3485 ft 251 kts 29°
2026-04-25 23:02 51.37256 12.77726 3142 ft 235 kts 358°
2026-04-25 23:02 51.38846 12.77202 3016 ft 235 kts 329°
2026-04-25 23:02 51.40008 12.75444 2998 ft 230 kts 303°
2026-04-25 23:02 51.40716 12.73152 3004 ft 230 kts 296°
2026-04-25 23:03 51.41301 12.70857 2971 ft 210 kts 295°
2026-04-25 23:03 51.41799 12.68816 2980 ft 188 kts 295°
2026-04-25 23:03 51.42252 12.66919 3009 ft 179 kts 295°
2026-04-25 23:03 51.42691 12.65061 3021 ft 179 kts 294°
2026-04-25 23:04 51.42921 12.63104 3014 ft 181 kts 277°
2026-04-25 23:04 51.42948 12.61731 3027 ft 185 kts 278°
2026-04-25 23:04 51.42941 12.58930 3027 ft 192 kts 274°
2026-04-25 23:04 51.42863 12.56815 3018 ft 189 kts 273°
2026-04-25 23:05 51.42770 12.54743 2998 ft 186 kts 274°
2026-04-25 23:05 51.42673 12.52672 3023 ft 186 kts 274°
2026-04-25 23:05 51.42576 12.50603 3030 ft 185 kts 274°
2026-04-25 23:05 51.42479 12.48602 3041 ft 174 kts 274°
2026-04-25 23:06 51.42390 12.46706 3019 ft 168 kts 274°
2026-04-25 23:06 51.42304 12.44828 2966 ft 171 kts 274°
2026-04-25 23:06 51.42215 12.42931 2713 ft 169 kts 274°
2026-04-25 23:06 51.42127 12.41069 2489 ft 166 kts 274°
2026-04-25 23:07 51.42042 12.39228 2268 ft 167 kts 274°
2026-04-25 23:07 51.41955 12.37371 2035 ft 166 kts 272°
2026-04-25 23:07 51.41868 12.35533 1801 ft 164 kts 272°
2026-04-25 23:07 51.41784 12.33780 1559 ft 150 kts 272°
2026-04-25 23:08 51.41712 12.32240 1363 ft 129 kts 272°
2026-04-25 23:08 51.41645 12.30785 1191 ft 134 kts 270°
2026-04-25 23:08 51.41573 12.29277 984 ft 135 kts 272°
2026-04-25 23:08 51.41504 12.27775 806 ft 136 kts 270°
2026-04-25 23:09 51.41424 12.26261 591 ft 138 kts 271°
2026-04-25 23:09 51.41355 12.24779 484 ft 123 kts 271°
2026-04-25 23:09 51.41308 12.23596 476 ft 86 kts 266°
2026-04-25 23:09 51.41273 12.22897 466 ft 48 kts 264°
2026-04-25 23:10 51.41206 12.22618 465 ft 16 kts 240°
2026-04-25 23:10 51.41170 12.22522 466 ft 3 kts 237°
2026-04-25 23:10 51.41163 12.22503 466 ft 3 kts 235°
2026-04-25 23:10 51.41153 12.22482 465 ft 0 kts 233°
2026-04-25 23:11 51.41152 12.22480 465 ft 2 kts 233°
2026-04-25 23:11 51.41111 12.22392 464 ft 20 kts 232°
2026-04-25 23:11 51.41040 12.22312 464 ft 10 kts 182°
2026-04-25 23:11 51.40999 12.22381 465 ft 6 kts 98°
2026-04-25 23:12 51.40996 12.22450 466 ft 6 kts 89°
2026-04-25 23:12 51.41000 12.22519 467 ft 6 kts 83°
2026-04-25 23:12 51.41004 12.22588 469 ft 6 kts 86°
2026-04-25 23:12 51.41007 12.22667 470 ft 12 kts 86°
2026-04-25 23:13 51.41013 12.22845 472 ft 13 kts 86°
2026-04-25 23:13 51.41020 12.22992 473 ft 13 kts 85°
2026-04-25 23:13 51.41029 12.23144 471 ft 15 kts 85°
2026-04-25 23:13 51.41040 12.23400 473 ft 33 kts 85°
2026-04-25 23:14 51.41057 12.23816 475 ft 23 kts 87°
2026-04-25 23:14 51.41070 12.24070 470 ft 23 kts 84°
2026-04-25 23:14 51.41083 12.24325 474 ft 23 kts 86°
2026-04-25 23:14 51.41093 12.24580 474 ft 23 kts 84°
2026-04-25 23:15 51.41107 12.24834 476 ft 23 kts 85°
2026-04-25 23:15 51.41104 12.25071 474 ft 16 kts 120°
2026-04-25 23:15 51.41049 12.25100 468 ft 8 kts 179°
2026-04-25 23:15 51.40941 12.25109 468 ft 27 kts 176°
2026-04-25 23:16 51.40799 12.25125 468 ft 12 kts 180°
2026-04-25 23:16 51.40779 12.25082 467 ft 4 kts 265°
2026-04-25 23:16 51.40776 12.25035 467 ft 5 kts 265°
2026-04-25 23:16 51.40775 12.25012 467 ft 0 kts 265°